Time,TemperatureF,DewpointF,PressureIn,WindDirection,WindDirectionDegrees,WindSpeedMPH,WindSpeedGustMPH,Humidity,HourlyPrecipIn,Conditions,Clouds,dailyrainin,SoftwareType,DateUTC
2013-04-03 00:00:00,35.7,19.8,30.27,WNW,302,0.0,0.0,52,0.00,,,0.00,VWS V14.01,2013-04-03 05:00:00,
2013-04-03 00:02:00,35.7,19.8,30.27,WNW,302,0.0,0.0,52,0.00,,CLR,0.00,VWS V14.01,2013-04-03 05:02:00,
2013-04-03 00:03:00,35.7,19.8,30.27,WNW,302,0.0,0.0,52,0.00,,CLR,0.00,VWS V14.01,2013-04-03 05:03:00,
2013-04-03 00:04:00,35.7,19.8,30.27,WNW,302,0.0,0.0,52,0.00,,CLR,0.00,VWS V14.01,2013-04-03 05:04:00,
2013-04-03 00:07:00,35.7,19.8,30.27,NW,304,0.0,1.0,52,0.00,,CLR,0.00,VWS V14.01,2013-04-03 05:07:00,
2013-04-03 00:08:00,35.7,19.8,30.27,NW,304,0.0,1.0,52,0.00,,CLR,0.00,VWS V14.01,2013-04-03 05:08:00,
2013-04-03 00:09:00,35.7,19.8,30.27,NW,304,0.0,1.0,52,0.00,,CLR,0.00,VWS V14.01,2013-04-03 05:09:00,
2013-04-03 00:12:00,35.5,20.1,30.27,NW,305,0.0,1.0,53,0.00,,CLR,0.00,VWS V14.01,2013-04-03 05:12:00,
2013-04-03 00:13:00,35.5,20.1,30.27,NW,305,0.0,1.0,53,0.00,,CLR,0.00,VWS V14.01,2013-04-03 05:13:00,
2013-04-03 00:14:00,35.5,20.1,30.27,NW,305,0.0,1.0,53,0.00,,CLR,0.00,VWS V14.01,2013-04-03 05:14:00,
2013-04-03 00:17:00,35.5,20.1,30.27,NW,324,0.0,1.0,53,0.00,,CLR,0.00,VWS V14.01,2013-04-03 05:17:00,
2013-04-03 00:19:00,35.4,20.0,30.27,NW,325,0.0,1.0,53,0.00,,CLR,0.00,VWS V14.01,2013-04-03 05:19:00,
2013-04-03 00:20:00,35.4,20.0,30.27,NW,325,0.0,1.0,53,0.00,,CLR,0.00,VWS V14.01,2013-04-03 05:20:00,
2013-04-03 00:23:00,35.4,20.0,30.27,NW,325,0.0,1.0,53,0.00,,CLR,0.00,VWS V14.01,2013-04-03 05:23:00,
2013-04-03 00:24:00,35.2,20.2,30.27,NW,325,0.0,1.0,54,0.00,,CLR,0.00,VWS V14.01,2013-04-03 05:24:00,
2013-04-03 00:25:00,35.2,20.2,30.27,NW,325,0.0,1.0,54,0.00,,CLR,0.00,VWS V14.01,2013-04-03 05:25:00,
2013-04-03 00:28:00,35.1,20.1,30.27,NW,325,0.0,1.0,54,0.00,,CLR,0.00,VWS V14.01,2013-04-03 05:28:00,
2013-04-03 00:29:00,35.1,20.1,30.27,NW,325,0.0,1.0,54,0.00,,CLR,0.00,VWS V14.01,2013-04-03 05:29:00,
2013-04-03 00:30:00,35.1,20.1,30.27,NW,325,0.0,0.0,54,0.00,,CLR,0.00,VWS V14.01,2013-04-03 05:30:00,
2013-04-03 00:33:00,34.9,20.0,30.27,NW,325,0.0,0.0,54,0.00,,CLR,0.00,VWS V14.01,2013-04-03 05:33:00,
2013-04-03 00:34:00,34.9,20.0,30.27,NW,325,0.0,0.0,54,0.00,,CLR,0.00,VWS V14.01,2013-04-03 05:34:00,
2013-04-03 00:35:00,34.9,20.0,30.27,NW,325,0.0,0.0,54,0.00,,CLR,0.00,VWS V14.01,2013-04-03 05:35:00,
2013-04-03 00:38:00,34.9,20.0,30.27,NW,325,0.0,0.0,54,0.00,,CLR,0.00,VWS V14.01,2013-04-03 05:38:00,
2013-04-03 00:40:00,34.8,19.9,30.27,NW,325,0.0,0.0,54,0.00,,CLR,0.00,VWS V14.01,2013-04-03 05:40:00,
2013-04-03 00:43:00,34.6,19.7,30.27,NW,325,0.0,1.0,54,0.00,,CLR,0.00,VWS V14.01,2013-04-03 05:43:00,
2013-04-03 00:45:00,34.6,19.7,30.27,NW,325,0.0,1.0,54,0.00,,CLR,0.00,VWS V14.01,2013-04-03 05:45:00,
2013-04-03 00:48:00,34.5,20.0,30.27,NW,325,0.0,1.0,55,0.00,,CLR,0.00,VWS V14.01,2013-04-03 05:48:00,
2013-04-03 00:50:00,34.5,20.0,30.27,NW,325,0.0,1.0,55,0.00,,CLR,0.00,VWS V14.01,2013-04-03 05:50:00,
2013-04-03 00:54:00,34.3,19.8,30.27,NW,325,0.0,1.0,55,0.00,,CLR,0.00,VWS V14.01,2013-04-03 05:54:00,
2013-04-03 00:55:00,34.3,19.8,30.27,NW,325,0.0,1.0,55,0.00,,CLR,0.00,VWS V14.01,2013-04-03 05:55:00,
2013-04-03 00:59:00,34.3,19.8,30.27,NW,325,0.0,1.0,55,0.00,,CLR,0.00,VWS V14.01,2013-04-03 05:59:00,
2013-04-03 01:00:00,34.3,19.8,30.27,NW,325,0.0,0.0,55,0.00,,CLR,0.00,VWS V14.01,2013-04-03 06:00:00,
2013-04-03 01:04:00,34.3,19.8,30.27,NW,325,0.0,1.0,55,0.00,,CLR,0.00,VWS V14.01,2013-04-03 06:04:00,
2013-04-03 01:05:00,34.2,19.7,30.27,NW,325,0.0,1.0,55,0.00,,CLR,0.00,VWS V14.01,2013-04-03 06:05:00,
2013-04-03 01:09:00,34.2,19.7,30.27,NW,325,0.0,1.0,55,0.00,,CLR,0.00,VWS V14.01,2013-04-03 06:09:00,
2013-04-03 01:10:00,34.2,19.7,30.27,NW,325,0.0,1.0,55,0.00,,CLR,0.00,VWS V14.01,2013-04-03 06:10:00,
2013-04-03 01:14:00,34.0,20.0,30.28,NW,325,0.0,1.0,56,0.00,,CLR,0.00,VWS V14.01,2013-04-03 06:14:00,
2013-04-03 01:15:00,33.9,19.9,30.28,NW,325,0.0,1.0,56,0.00,,CLR,0.00,VWS V14.01,2013-04-03 06:15:00,
2013-04-03 01:16:00,33.9,19.9,30.28,NW,325,0.0,1.0,56,0.00,,CLR,0.00,VWS V14.01,2013-04-03 06:16:00,
2013-04-03 01:19:00,33.7,19.7,30.28,NW,325,0.0,1.0,56,0.00,,CLR,0.00,VWS V14.01,2013-04-03 06:19:00,
2013-04-03 01:20:00,33.7,19.7,30.28,NW,325,0.0,1.0,56,0.00,,CLR,0.00,VWS V14.01,2013-04-03 06:20:00,
2013-04-03 01:21:00,33.7,19.7,30.28,NW,325,0.0,1.0,56,0.00,,CLR,0.00,VWS V14.01,2013-04-03 06:21:00,
2013-04-03 01:24:00,33.4,19.4,30.28,NW,325,0.0,1.0,56,0.00,,CLR,0.00,VWS V14.01,2013-04-03 06:24:00,
2013-04-03 01:25:00,33.4,19.4,30.28,NW,325,0.0,1.0,56,0.00,,CLR,0.00,VWS V14.01,2013-04-03 06:25:00,
2013-04-03 01:26:00,33.4,19.4,30.28,NW,325,0.0,1.0,56,0.00,,CLR,0.00,VWS V14.01,2013-04-03 06:26:00,
2013-04-03 01:29:00,33.3,19.7,30.29,NW,325,0.0,1.0,57,0.00,,CLR,0.00,VWS V14.01,2013-04-03 06:29:00,
2013-04-03 01:30:00,33.3,19.7,30.29,NW,325,0.0,1.0,57,0.00,,,0.00,VWS V14.01,2013-04-03 06:30:00,
2013-04-03 01:31:00,33.3,19.7,30.29,NW,325,0.0,0.0,57,0.00,,CLR,0.00,VWS V14.01,2013-04-03 06:31:00,
2013-04-03 01:34:00,33.1,19.5,30.29,NW,325,0.0,0.0,57,0.00,,CLR,0.00,VWS V14.01,2013-04-03 06:34:00,
2013-04-03 01:36:00,33.1,19.9,30.29,NW,325,0.0,0.0,58,0.00,,CLR,0.00,VWS V14.01,2013-04-03 06:36:00,
2013-04-03 01:39:00,32.8,19.7,30.29,NW,325,0.0,0.0,58,0.00,,CLR,0.00,VWS V14.01,2013-04-03 06:39:00,
2013-04-03 01:41:00,32.7,19.6,30.29,NW,325,0.0,0.0,58,0.00,,CLR,0.00,VWS V14.01,2013-04-03 06:41:00,
2013-04-03 01:42:00,32.6,19.9,30.29,NW,325,0.0,0.0,59,0.00,,CLR,0.00,VWS V14.01,2013-04-03 06:42:00,
2013-04-03 01:45:00,32.4,19.7,30.29,NW,325,0.0,0.0,59,0.00,,CLR,0.00,VWS V14.01,2013-04-03 06:45:00,
2013-04-03 01:47:00,32.4,19.7,30.29,NW,325,0.0,0.0,59,0.00,,CLR,0.00,VWS V14.01,2013-04-03 06:47:00,
2013-04-03 01:50:00,32.4,19.7,30.29,NW,325,0.0,0.0,59,0.00,,CLR,0.00,VWS V14.01,2013-04-03 06:50:00,
2013-04-03 01:52:00,32.4,19.7,30.29,NW,325,0.0,0.0,59,0.00,,CLR,0.00,VWS V14.01,2013-04-03 06:52:00,
2013-04-03 01:55:00,32.4,20.1,30.29,NW,325,0.0,0.0,60,0.00,,CLR,0.00,VWS V14.01,2013-04-03 06:55:00,
2013-04-03 01:57:00,32.4,20.1,30.29,NW,325,0.0,0.0,60,0.00,,CLR,0.00,VWS V14.01,2013-04-03 06:57:00,
2013-04-03 01:58:00,32.4,20.1,30.29,NW,325,0.0,0.0,60,0.00,,CLR,0.00,VWS V14.01,2013-04-03 06:58:00,
2013-04-03 02:00:00,32.4,20.1,30.29,NW,325,0.0,0.0,60,0.00,,CLR,0.00,VWS V14.01,2013-04-03 07:00:00,
2013-04-03 02:02:00,32.4,20.1,30.29,NW,325,0.0,0.0,60,0.00,,CLR,0.00,VWS V14.01,2013-04-03 07:02:00,
2013-04-03 02:03:00,32.4,20.1,30.29,NW,325,0.0,0.0,60,0.00,,CLR,0.00,VWS V14.01,2013-04-03 07:03:00,
2013-04-03 02:05:00,32.3,20.0,30.29,NW,325,0.0,0.0,60,0.00,,CLR,0.00,VWS V14.01,2013-04-03 07:05:00,
2013-04-03 02:07:00,32.4,20.5,30.29,NW,325,0.0,1.0,61,0.00,,CLR,0.00,VWS V14.01,2013-04-03 07:07:00,
2013-04-03 02:08:00,32.4,20.5,30.29,NW,325,0.0,1.0,61,0.00,,CLR,0.00,VWS V14.01,2013-04-03 07:08:00,
2013-04-03 02:10:00,32.4,20.5,30.29,NW,325,0.0,1.0,61,0.00,,CLR,0.00,VWS V14.01,2013-04-03 07:10:00,
2013-04-03 02:13:00,32.4,20.5,30.29,NW,325,0.0,1.0,61,0.00,,CLR,0.00,VWS V14.01,2013-04-03 07:13:00,
2013-04-03 02:15:00,32.4,20.5,30.28,NW,325,0.0,3.0,61,0.00,,CLR,0.00,VWS V14.01,2013-04-03 07:15:00,
2013-04-03 02:18:00,32.4,20.5,30.28,NW,325,0.0,3.0,61,0.00,,CLR,0.00,VWS V14.01,2013-04-03 07:18:00,
2013-04-03 02:20:00,32.4,20.5,30.28,NW,326,0.0,3.0,61,0.00,,CLR,0.00,VWS V14.01,2013-04-03 07:20:00,
2013-04-03 02:23:00,32.4,20.5,30.28,NNW,328,0.0,3.0,61,0.00,,CLR,0.00,VWS V14.01,2013-04-03 07:23:00,
2013-04-03 02:25:00,32.3,20.8,30.28,NNW,328,0.0,3.0,62,0.00,,CLR,0.00,VWS V14.01,2013-04-03 07:25:00,
2013-04-03 02:28:00,32.3,20.8,30.28,NNW,328,0.0,3.0,62,0.00,,CLR,0.00,VWS V14.01,2013-04-03 07:28:00,
2013-04-03 02:30:00,32.3,20.8,30.27,NNW,332,0.0,0.0,62,0.00,,CLR,0.00,VWS V14.01,2013-04-03 07:30:00,
2013-04-03 02:34:00,32.1,20.6,30.27,NNW,332,0.0,0.0,62,0.00,,CLR,0.00,VWS V14.01,2013-04-03 07:34:00,
2013-04-03 02:35:00,32.1,20.6,30.27,NNW,332,0.0,0.0,62,0.00,,CLR,0.00,VWS V14.01,2013-04-03 07:35:00,
2013-04-03 02:39:00,32.1,20.6,30.27,NNW,332,0.0,0.0,62,0.00,,CLR,0.00,VWS V14.01,2013-04-03 07:39:00,
2013-04-03 02:40:00,32.0,20.5,30.27,NNW,335,0.0,3.0,62,0.00,,CLR,0.00,VWS V14.01,2013-04-03 07:40:00,
2013-04-03 02:44:00,32.1,20.6,30.27,NNW,337,0.0,3.0,62,0.00,,CLR,0.00,VWS V14.01,2013-04-03 07:44:00,
2013-04-03 02:45:00,32.1,20.6,30.27,NNW,338,0.0,3.0,62,0.00,,CLR,0.00,VWS V14.01,2013-04-03 07:45:00,
2013-04-03 02:46:00,32.1,20.6,30.27,NNW,337,0.0,3.0,62,0.00,,CLR,0.00,VWS V14.01,2013-04-03 07:46:00,
2013-04-03 02:49:00,32.1,20.6,30.27,NNW,337,0.0,3.0,62,0.00,,CLR,0.00,VWS V14.01,2013-04-03 07:49:00,
2013-04-03 02:50:00,32.1,20.6,30.27,NNW,338,0.0,3.0,62,0.00,,CLR,0.00,VWS V14.01,2013-04-03 07:50:00,
2013-04-03 02:51:00,32.1,20.6,30.27,NNW,337,0.0,3.0,62,0.00,,CLR,0.00,VWS V14.01,2013-04-03 07:51:00,
2013-04-03 02:54:00,32.1,20.6,30.27,NNW,337,0.0,3.0,62,0.00,,CLR,0.00,VWS V14.01,2013-04-03 07:54:00,
2013-04-03 02:55:00,32.0,20.5,30.27,NNW,338,0.0,3.0,62,0.00,,CLR,0.00,VWS V14.01,2013-04-03 07:55:00,
2013-04-03 02:57:00,32.0,20.5,30.27,NNW,338,0.0,3.0,62,0.00,,CLR,0.00,VWS V14.01,2013-04-03 07:57:00,
2013-04-03 02:59:00,32.0,20.5,30.27,NNW,337,0.0,3.0,62,0.00,,CLR,0.00,VWS V14.01,2013-04-03 07:59:00,
2013-04-03 03:00:00,32.0,20.5,30.27,NNW,338,0.0,0.0,62,0.00,,CLR,0.00,VWS V14.01,2013-04-03 08:00:00,
2013-04-03 03:02:00,32.0,20.5,30.27,NNW,337,0.0,0.0,62,0.00,,CLR,0.00,VWS V14.01,2013-04-03 08:02:00,
2013-04-03 03:04:00,32.0,20.5,30.27,NNW,338,0.0,0.0,62,0.00,,CLR,0.00,VWS V14.01,2013-04-03 08:04:00,
2013-04-03 03:05:00,32.0,20.5,30.27,NNW,337,0.0,0.0,62,0.00,,CLR,0.00,VWS V14.01,2013-04-03 08:05:00,
2013-04-03 03:06:00,32.0,20.5,30.27,NNW,338,0.0,0.0,62,0.00,,CLR,0.00,VWS V14.01,2013-04-03 08:06:00,
2013-04-03 03:07:00,32.0,20.5,30.27,NNW,338,0.0,0.0,62,0.00,,CLR,0.00,VWS V14.01,2013-04-03 08:07:00,
2013-04-03 03:10:00,32.0,20.5,30.27,NNW,338,0.0,1.0,62,0.00,,CLR,0.00,VWS V14.01,2013-04-03 08:10:00,
2013-04-03 03:11:00,32.0,20.5,30.27,NNW,338,0.0,1.0,62,0.00,,CLR,0.00,VWS V14.01,2013-04-03 08:11:00,
2013-04-03 03:12:00,32.0,20.5,30.27,NNW,337,0.0,3.0,62,0.00,,CLR,0.00,VWS V14.01,2013-04-03 08:12:00,
2013-04-03 03:15:00,32.0,20.5,30.27,NNW,338,0.0,3.0,62,0.00,,CLR,0.00,VWS V14.01,2013-04-03 08:15:00,
2013-04-03 03:17:00,31.8,20.3,30.27,NNW,338,0.0,3.0,62,0.00,,CLR,0.00,VWS V14.01,2013-04-03 08:17:00,
2013-04-03 03:20:00,31.8,20.3,30.27,North,5,1.0,3.0,62,0.00,,CLR,0.00,VWS V14.01,2013-04-03 08:20:00,
2013-04-03 03:21:00,31.8,20.3,30.27,North,355,0.0,3.0,62,0.00,,CLR,0.00,VWS V14.01,2013-04-03 08:21:00,
2013-04-03 03:22:00,31.8,20.3,30.27,North,355,0.0,3.0,62,0.00,,CLR,0.00,VWS V14.01,2013-04-03 08:22:00,
2013-04-03 03:23:00,31.8,20.3,30.27,North,355,0.0,3.0,62,0.00,,CLR,0.00,VWS V14.01,2013-04-03 08:23:00,
2013-04-03 03:25:00,31.8,20.3,30.27,North,355,0.0,3.0,62,0.00,,CLR,0.00,VWS V14.01,2013-04-03 08:25:00,
2013-04-03 03:26:00,31.8,20.3,30.27,North,355,0.0,3.0,62,0.00,,CLR,0.00,VWS V14.01,2013-04-03 08:26:00,
2013-04-03 03:27:00,32.0,20.1,30.27,North,355,0.0,3.0,61,0.00,,CLR,0.00,VWS V14.01,2013-04-03 08:27:00,
2013-04-03 03:28:00,32.0,20.1,30.27,North,355,0.0,3.0,61,0.00,,CLR,0.00,VWS V14.01,2013-04-03 08:28:00,
2013-04-03 03:30:00,31.8,19.9,30.27,North,355,0.0,2.0,61,0.00,,CLR,0.00,VWS V14.01,2013-04-03 08:30:00,
2013-04-03 03:31:00,31.8,19.9,30.27,North,355,0.0,2.0,61,0.00,,CLR,0.00,VWS V14.01,2013-04-03 08:31:00,
2013-04-03 03:33:00,31.8,19.9,30.27,North,355,0.0,2.0,61,0.00,,CLR,0.00,VWS V14.01,2013-04-03 08:33:00,
2013-04-03 03:35:00,31.8,19.9,30.27,North,355,0.0,2.0,61,0.00,,CLR,0.00,VWS V14.01,2013-04-03 08:35:00,
2013-04-03 03:36:00,31.8,19.9,30.27,North,355,0.0,2.0,61,0.00,,CLR,0.00,VWS V14.01,2013-04-03 08:36:00,
2013-04-03 03:38:00,31.8,19.9,30.27,North,355,0.0,3.0,61,0.00,,CLR,0.00,VWS V14.01,2013-04-03 08:38:00,
2013-04-03 03:40:00,31.8,19.9,30.27,North,355,0.0,3.0,61,0.00,,CLR,0.00,VWS V14.01,2013-04-03 08:40:00,
2013-04-03 03:41:00,31.8,19.9,30.27,North,355,0.0,3.0,61,0.00,,CLR,0.00,VWS V14.01,2013-04-03 08:41:00,
2013-04-03 03:43:00,31.8,19.9,30.27,North,355,0.0,3.0,61,0.00,,CLR,0.00,VWS V14.01,2013-04-03 08:43:00,
2013-04-03 03:45:00,31.8,19.9,30.28,North,355,0.0,3.0,61,0.00,,CLR,0.00,VWS V14.01,2013-04-03 08:45:00,
2013-04-03 03:47:00,31.8,19.9,30.28,North,355,0.0,3.0,61,0.00,,CLR,0.00,VWS V14.01,2013-04-03 08:47:00,
2013-04-03 03:48:00,31.8,19.9,30.28,North,355,0.0,3.0,61,0.00,,CLR,0.00,VWS V14.01,2013-04-03 08:48:00,
2013-04-03 03:50:00,31.8,19.9,30.28,North,355,0.0,3.0,61,0.00,,CLR,0.00,VWS V14.01,2013-04-03 08:50:00,
2013-04-03 03:52:00,31.8,19.9,30.28,North,355,0.0,3.0,61,0.00,,CLR,0.00,VWS V14.01,2013-04-03 08:52:00,
2013-04-03 03:53:00,31.8,19.9,30.28,North,355,0.0,3.0,61,0.00,,CLR,0.00,VWS V14.01,2013-04-03 08:53:00,
2013-04-03 03:57:00,31.7,19.8,30.28,North,355,0.0,3.0,61,0.00,,CLR,0.00,VWS V14.01,2013-04-03 08:57:00,
2013-04-03 03:58:00,31.7,19.8,30.28,North,355,0.0,3.0,61,0.00,,CLR,0.00,VWS V14.01,2013-04-03 08:58:00,
2013-04-03 04:00:00,31.7,20.2,30.28,North,355,0.0,3.0,62,0.00,,,0.00,VWS V14.01,2013-04-03 09:00:00,
2013-04-03 04:02:00,31.7,20.2,30.28,North,355,0.0,0.0,62,0.00,,CLR,0.00,VWS V14.01,2013-04-03 09:02:00,
2013-04-03 04:03:00,31.5,20.0,30.28,North,355,0.0,0.0,62,0.00,,CLR,0.00,VWS V14.01,2013-04-03 09:03:00,
2013-04-03 04:04:00,31.5,20.0,30.28,North,355,0.0,0.0,62,0.00,,CLR,0.00,VWS V14.01,2013-04-03 09:04:00,
2013-04-03 04:07:00,31.4,19.9,30.28,North,355,1.0,1.0,62,0.00,,CLR,0.00,VWS V14.01,2013-04-03 09:07:00,
2013-04-03 04:09:00,31.4,19.9,30.28,North,355,0.0,1.0,62,0.00,,CLR,0.00,VWS V14.01,2013-04-03 09:09:00,
2013-04-03 04:12:00,31.4,20.3,30.28,North,355,0.0,1.0,63,0.00,,CLR,0.00,VWS V14.01,2013-04-03 09:12:00,
2013-04-03 04:14:00,31.4,19.9,30.28,North,355,0.0,1.0,62,0.00,,CLR,0.00,VWS V14.01,2013-04-03 09:14:00,
2013-04-03 04:17:00,31.2,20.1,30.29,North,355,0.0,1.0,63,0.00,,CLR,0.00,VWS V14.01,2013-04-03 09:17:00,
2013-04-03 04:19:00,31.2,20.1,30.29,North,355,0.0,1.0,63,0.00,,CLR,0.00,VWS V14.01,2013-04-03 09:19:00,
2013-04-03 04:22:00,31.1,20.0,30.29,North,355,0.0,1.0,63,0.00,,CLR,0.00,VWS V14.01,2013-04-03 09:22:00,
2013-04-03 04:24:00,31.1,20.0,30.29,North,355,0.0,1.0,63,0.00,,CLR,0.00,VWS V14.01,2013-04-03 09:24:00,
2013-04-03 04:27:00,30.9,20.2,30.29,North,355,0.0,1.0,64,0.00,,CLR,0.00,VWS V14.01,2013-04-03 09:27:00,
2013-04-03 04:28:00,30.9,20.2,30.29,North,355,0.0,1.0,64,0.00,,CLR,0.00,VWS V14.01,2013-04-03 09:28:00,
2013-04-03 04:29:00,30.8,20.1,30.29,North,355,0.0,1.0,64,0.00,,CLR,0.00,VWS V14.01,2013-04-03 09:29:00,
2013-04-03 04:30:00,30.8,20.1,30.29,North,355,0.0,1.0,64,0.00,,,0.00,VWS V14.01,2013-04-03 09:30:00,
2013-04-03 04:32:00,30.6,20.2,30.29,North,355,0.0,0.0,65,0.00,,CLR,0.00,VWS V14.01,2013-04-03 09:32:00,
2013-04-03 04:33:00,30.6,20.2,30.29,North,355,0.0,0.0,65,0.00,,CLR,0.00,VWS V14.01,2013-04-03 09:33:00,
2013-04-03 04:34:00,30.6,20.2,30.29,North,355,0.0,0.0,65,0.00,,CLR,0.00,VWS V14.01,2013-04-03 09:34:00,
2013-04-03 04:37:00,30.5,20.5,30.29,North,355,0.0,0.0,66,0.00,,CLR,0.00,VWS V14.01,2013-04-03 09:37:00,
2013-04-03 04:38:00,30.5,20.5,30.29,North,355,0.0,0.0,66,0.00,,CLR,0.00,VWS V14.01,2013-04-03 09:38:00,
2013-04-03 04:39:00,30.3,20.3,30.29,North,355,0.0,1.0,66,0.00,,CLR,0.00,VWS V14.01,2013-04-03 09:39:00,
2013-04-03 04:42:00,30.3,20.3,30.29,North,355,0.0,1.0,66,0.00,,CLR,0.00,VWS V14.01,2013-04-03 09:42:00,
2013-04-03 04:43:00,30.3,20.3,30.29,North,355,0.0,1.0,66,0.00,,CLR,0.00,VWS V14.01,2013-04-03 09:43:00,
2013-04-03 04:44:00,30.2,20.2,30.29,North,355,0.0,1.0,66,0.00,,CLR,0.00,VWS V14.01,2013-04-03 09:44:00,
2013-04-03 04:47:00,30.2,20.6,30.29,North,355,0.0,1.0,67,0.00,,CLR,0.00,VWS V14.01,2013-04-03 09:47:00,
2013-04-03 04:48:00,30.2,20.6,30.29,North,355,0.0,1.0,67,0.00,,CLR,0.00,VWS V14.01,2013-04-03 09:48:00,
2013-04-03 04:49:00,30.2,20.6,30.29,North,355,0.0,1.0,67,0.00,,CLR,0.00,VWS V14.01,2013-04-03 09:49:00,
2013-04-03 04:50:00,30.2,20.6,30.29,North,355,0.0,1.0,67,0.00,,CLR,0.00,VWS V14.01,2013-04-03 09:50:00,
2013-04-03 04:52:00,30.2,20.6,30.29,North,355,0.0,1.0,67,0.00,,CLR,0.00,VWS V14.01,2013-04-03 09:52:00,
2013-04-03 04:53:00,30.2,20.6,30.29,North,355,0.0,1.0,67,0.00,,CLR,0.00,VWS V14.01,2013-04-03 09:53:00,
2013-04-03 04:54:00,30.0,20.4,30.29,North,355,0.0,1.0,67,0.00,,CLR,0.00,VWS V14.01,2013-04-03 09:54:00,
2013-04-03 04:55:00,30.0,20.4,30.29,North,355,0.0,1.0,67,0.00,,CLR,0.00,VWS V14.01,2013-04-03 09:55:00,
2013-04-03 04:58:00,30.0,20.4,30.29,North,355,0.0,1.0,67,0.00,,CLR,0.00,VWS V14.01,2013-04-03 09:58:00,
2013-04-03 04:59:00,30.0,20.4,30.29,North,355,0.0,1.0,67,0.00,,CLR,0.00,VWS V14.01,2013-04-03 09:59:00,
2013-04-03 05:00:00,29.9,20.3,30.29,North,355,0.0,0.0,67,0.00,,CLR,0.00,VWS V14.01,2013-04-03 10:00:00,
2013-04-03 05:03:00,29.9,20.6,30.29,North,355,0.0,0.0,68,0.00,,CLR,0.00,VWS V14.01,2013-04-03 10:03:00,
2013-04-03 05:04:00,29.9,20.6,30.29,North,355,0.0,0.0,68,0.00,,CLR,0.00,VWS V14.01,2013-04-03 10:04:00,
2013-04-03 05:05:00,29.9,20.6,30.29,North,355,0.0,1.0,68,0.00,,CLR,0.00,VWS V14.01,2013-04-03 10:05:00,
2013-04-03 05:08:00,29.7,20.5,30.29,North,355,0.0,1.0,68,0.00,,CLR,0.00,VWS V14.01,2013-04-03 10:08:00,
2013-04-03 05:09:00,29.7,20.5,30.29,North,355,0.0,1.0,68,0.00,,CLR,0.00,VWS V14.01,2013-04-03 10:09:00,
2013-04-03 05:10:00,29.7,20.5,30.29,North,355,0.0,1.0,68,0.00,,CLR,0.00,VWS V14.01,2013-04-03 10:10:00,
2013-04-03 05:13:00,29.7,20.5,30.29,North,355,0.0,2.0,68,0.00,,CLR,0.00,VWS V14.01,2013-04-03 10:13:00,
2013-04-03 05:15:00,29.6,20.4,30.28,North,355,0.0,2.0,68,0.00,,CLR,0.00,VWS V14.01,2013-04-03 10:15:00,
2013-04-03 05:18:00,29.6,20.7,30.28,North,355,0.0,2.0,69,0.00,,CLR,0.00,VWS V14.01,2013-04-03 10:18:00,
2013-04-03 05:20:00,29.6,20.7,30.28,North,355,0.0,2.0,69,0.00,,CLR,0.00,VWS V14.01,2013-04-03 10:20:00,
2013-04-03 05:23:00,29.6,20.7,30.28,North,355,0.0,2.0,69,0.00,,CLR,0.00,VWS V14.01,2013-04-03 10:23:00,
2013-04-03 05:25:00,29.4,20.5,30.28,North,355,0.0,2.0,69,0.00,,CLR,0.00,VWS V14.01,2013-04-03 10:25:00,
2013-04-03 05:28:00,29.4,20.5,30.28,North,355,0.0,2.0,69,0.00,,CLR,0.00,VWS V14.01,2013-04-03 10:28:00,
2013-04-03 05:30:00,29.4,20.5,30.29,North,355,0.0,0.0,69,0.00,,CLR,0.00,VWS V14.01,2013-04-03 10:30:00,
2013-04-03 05:33:00,29.4,20.5,30.29,North,355,0.0,0.0,69,0.00,,CLR,0.00,VWS V14.01,2013-04-03 10:33:00,
2013-04-03 05:34:00,29.4,20.5,30.29,North,355,0.0,0.0,69,0.00,,CLR,0.00,VWS V14.01,2013-04-03 10:34:00,
2013-04-03 05:35:00,29.3,20.7,30.29,North,355,0.0,0.0,70,0.00,,CLR,0.00,VWS V14.01,2013-04-03 10:35:00,
2013-04-03 05:38:00,29.3,20.7,30.29,North,355,0.0,0.0,70,0.00,,CLR,0.00,VWS V14.01,2013-04-03 10:38:00,
2013-04-03 05:39:00,29.3,20.7,30.29,North,355,0.0,0.0,70,0.00,,CLR,0.00,VWS V14.01,2013-04-03 10:39:00,
2013-04-03 05:40:00,29.4,20.8,30.29,North,355,0.0,0.0,70,0.00,,CLR,0.00,VWS V14.01,2013-04-03 10:40:00,
2013-04-03 05:41:00,29.4,20.8,30.29,North,355,0.0,0.0,70,0.00,,CLR,0.00,VWS V14.01,2013-04-03 10:41:00,
2013-04-03 05:43:00,29.3,20.7,30.29,North,355,0.0,0.0,70,0.00,,CLR,0.00,VWS V14.01,2013-04-03 10:43:00,
2013-04-03 05:44:00,29.3,20.7,30.29,North,355,0.0,0.0,70,0.00,,CLR,0.00,VWS V14.01,2013-04-03 10:44:00,
2013-04-03 05:46:00,29.3,20.7,30.29,North,355,0.0,0.0,70,0.00,,CLR,0.00,VWS V14.01,2013-04-03 10:46:00,
2013-04-03 05:49:00,29.3,20.7,30.29,North,355,0.0,0.0,70,0.00,,CLR,0.00,VWS V14.01,2013-04-03 10:49:00,
2013-04-03 05:51:00,29.3,20.7,30.29,North,355,0.0,0.0,70,0.00,,CLR,0.00,VWS V14.01,2013-04-03 10:51:00,
2013-04-03 05:54:00,29.2,20.6,30.29,North,355,0.0,0.0,70,0.00,,CLR,0.00,VWS V14.01,2013-04-03 10:54:00,
2013-04-03 05:55:00,29.2,20.6,30.29,North,355,0.0,0.0,70,0.00,,CLR,0.00,VWS V14.01,2013-04-03 10:55:00,
2013-04-03 05:56:00,29.2,20.6,30.29,North,355,0.0,0.0,70,0.00,,CLR,0.00,VWS V14.01,2013-04-03 10:56:00,
2013-04-03 05:59:00,29.0,20.5,30.29,North,355,0.0,1.0,70,0.00,,CLR,0.00,VWS V14.01,2013-04-03 10:59:00,
2013-04-03 06:00:00,29.0,20.5,30.29,North,355,0.0,1.0,70,0.00,,CLR,0.00,VWS V14.01,2013-04-03 11:00:00,
2013-04-03 06:01:00,29.0,20.5,30.29,North,355,0.0,0.0,70,0.00,,CLR,0.00,VWS V14.01,2013-04-03 11:01:00,
2013-04-03 06:02:00,29.0,20.8,30.29,North,355,0.0,0.0,71,0.00,,CLR,0.00,VWS V14.01,2013-04-03 11:02:00,
2013-04-03 06:04:00,28.9,20.7,30.29,North,355,0.0,0.0,71,0.00,,CLR,0.00,VWS V14.01,2013-04-03 11:04:00,
2013-04-03 06:05:00,28.9,20.7,30.29,North,355,0.0,0.0,71,0.00,,CLR,0.00,VWS V14.01,2013-04-03 11:05:00,
2013-04-03 06:06:00,28.9,20.7,30.29,North,355,0.0,0.0,71,0.00,,CLR,0.00,VWS V14.01,2013-04-03 11:06:00,
2013-04-03 06:07:00,28.9,20.7,30.29,North,355,0.0,0.0,71,0.00,,CLR,0.00,VWS V14.01,2013-04-03 11:07:00,
2013-04-03 06:09:00,28.9,20.7,30.29,North,355,0.0,0.0,71,0.00,,CLR,0.00,VWS V14.01,2013-04-03 11:09:00,
2013-04-03 06:10:00,28.9,20.7,30.29,NW,324,0.0,3.0,71,0.00,,CLR,0.00,VWS V14.01,2013-04-03 11:10:00,
2013-04-03 06:11:00,28.9,20.7,30.29,NNW,331,0.0,3.0,71,0.00,,CLR,0.00,VWS V14.01,2013-04-03 11:11:00,
2013-04-03 06:12:00,28.7,20.5,30.29,NNW,342,0.0,4.0,71,0.00,,CLR,0.00,VWS V14.01,2013-04-03 11:12:00,
2013-04-03 06:14:00,28.7,20.8,30.29,NNW,342,0.0,4.0,72,0.00,,CLR,0.00,VWS V14.01,2013-04-03 11:14:00,
2013-04-03 06:15:00,28.7,20.8,30.29,NNW,342,0.0,4.0,72,0.00,,CLR,0.00,VWS V14.01,2013-04-03 11:15:00,
2013-04-03 06:16:00,28.7,20.8,30.29,NNW,342,0.0,4.0,72,0.00,,CLR,0.00,VWS V14.01,2013-04-03 11:16:00,
2013-04-03 06:17:00,28.7,20.8,30.29,NNW,342,0.0,4.0,72,0.00,,CLR,0.00,VWS V14.01,2013-04-03 11:17:00,
2013-04-03 06:19:00,28.7,20.8,30.29,North,349,0.0,4.0,72,0.00,,CLR,0.00,VWS V14.01,2013-04-03 11:19:00,
2013-04-03 06:20:00,28.7,20.8,30.29,North,355,1.0,4.0,72,0.00,,CLR,0.00,VWS V14.01,2013-04-03 11:20:00,
2013-04-03 06:21:00,28.7,20.8,30.29,North,355,0.0,4.0,72,0.00,,CLR,0.00,VWS V14.01,2013-04-03 11:21:00,
2013-04-03 06:22:00,28.7,20.8,30.29,NNW,342,0.0,4.0,72,0.00,,CLR,0.00,VWS V14.01,2013-04-03 11:22:00,
2013-04-03 06:25:00,28.7,20.8,30.29,North,350,0.0,4.0,72,0.00,,CLR,0.00,VWS V14.01,2013-04-03 11:25:00,
2013-04-03 06:26:00,28.7,20.5,30.29,North,350,0.0,4.0,71,0.00,,CLR,0.00,VWS V14.01,2013-04-03 11:26:00,
2013-04-03 06:28:00,28.7,20.5,30.29,North,350,0.0,4.0,71,0.00,,CLR,0.00,VWS V14.01,2013-04-03 11:28:00,
2013-04-03 06:30:00,28.7,20.5,30.30,North,360,0.0,4.0,71,0.00,,,0.00,VWS V14.01,2013-04-03 11:30:00,
2013-04-03 06:31:00,28.7,20.5,30.30,North,360,0.0,0.0,71,0.00,,CLR,0.00,VWS V14.01,2013-04-03 11:31:00,
2013-04-03 06:33:00,28.7,20.5,30.30,NW,321,0.0,4.0,71,0.00,,CLR,0.00,VWS V14.01,2013-04-03 11:33:00,
2013-04-03 06:36:00,28.7,20.5,30.30,North,350,0.0,4.0,71,0.00,,CLR,0.00,VWS V14.01,2013-04-03 11:36:00,
2013-04-03 06:37:00,28.7,20.5,30.30,North,351,0.0,4.0,71,0.00,,CLR,0.00,VWS V14.01,2013-04-03 11:37:00,
2013-04-03 06:38:00,28.7,20.5,30.30,North,351,0.0,4.0,71,0.00,,CLR,0.00,VWS V14.01,2013-04-03 11:38:00,
2013-04-03 06:41:00,28.7,20.8,30.30,North,355,0.0,4.0,72,0.00,,CLR,0.00,VWS V14.01,2013-04-03 11:41:00,
2013-04-03 06:42:00,28.7,20.8,30.30,North,355,0.0,4.0,72,0.00,,CLR,0.00,VWS V14.01,2013-04-03 11:42:00,
2013-04-03 06:43:00,28.7,20.8,30.30,North,355,0.0,4.0,72,0.00,,CLR,0.00,VWS V14.01,2013-04-03 11:43:00,
2013-04-03 06:47:00,28.6,20.7,30.32,North,355,0.0,4.0,72,0.00,,CLR,0.00,VWS V14.01,2013-04-03 11:47:00,
2013-04-03 06:49:00,28.6,20.7,30.32,North,355,0.0,4.0,72,0.00,,CLR,0.00,VWS V14.01,2013-04-03 11:49:00,
2013-04-03 06:52:00,28.6,20.7,30.32,North,355,0.0,4.0,72,0.00,,CLR,0.00,VWS V14.01,2013-04-03 11:52:00,
2013-04-03 06:54:00,28.6,20.7,30.32,North,355,0.0,4.0,72,0.00,,CLR,0.00,VWS V14.01,2013-04-03 11:54:00,
2013-04-03 06:57:00,28.6,21.1,30.32,North,355,0.0,4.0,73,0.00,,CLR,0.00,VWS V14.01,2013-04-03 11:57:00,
2013-04-03 06:58:00,28.6,21.1,30.32,North,355,0.0,4.0,73,0.00,,CLR,0.00,VWS V14.01,2013-04-03 11:58:00,
2013-04-03 06:59:00,28.6,21.1,30.32,North,355,0.0,4.0,73,0.00,,CLR,0.00,VWS V14.01,2013-04-03 11:59:00,
2013-04-03 07:00:00,28.6,21.1,30.33,North,355,0.0,4.0,73,0.00,,,0.00,VWS V14.01,2013-04-03 12:00:00,
2013-04-03 07:03:00,28.6,21.1,30.33,NNW,330,0.0,2.0,73,0.00,,CLR,0.00,VWS V14.01,2013-04-03 12:03:00,
2013-04-03 07:04:00,28.4,20.9,30.33,NW,318,0.0,2.0,73,0.00,,CLR,0.00,VWS V14.01,2013-04-03 12:04:00,
2013-04-03 07:08:00,28.4,20.9,30.33,NW,319,0.0,2.0,73,0.00,,CLR,0.00,VWS V14.01,2013-04-03 12:08:00,
2013-04-03 07:09:00,28.4,20.9,30.33,NW,319,0.0,2.0,73,0.00,,CLR,0.00,VWS V14.01,2013-04-03 12:09:00,
2013-04-03 07:13:00,28.6,21.1,30.33,NNW,341,2.0,4.0,73,0.00,,CLR,0.00,VWS V14.01,2013-04-03 12:13:00,
2013-04-03 07:14:00,28.6,21.1,30.34,NNW,346,0.0,4.0,73,0.00,,CLR,0.00,VWS V14.01,2013-04-03 12:14:00,
2013-04-03 07:18:00,28.9,21.4,30.34,NNW,348,0.0,4.0,73,0.00,,CLR,0.00,VWS V14.01,2013-04-03 12:18:00,
2013-04-03 07:19:00,28.9,21.4,30.34,NNE,13,3.0,4.0,73,0.00,,CLR,0.00,VWS V14.01,2013-04-03 12:19:00,
2013-04-03 07:23:00,29.0,21.4,30.34,NNE,13,0.0,4.0,73,0.00,,CLR,0.00,VWS V14.01,2013-04-03 12:23:00,
2013-04-03 07:24:00,29.2,21.6,30.34,NNE,13,0.0,4.0,73,0.00,,CLR,0.00,VWS V14.01,2013-04-03 12:24:00,
2013-04-03 07:28:00,29.4,21.5,30.34,NNE,13,0.0,4.0,72,0.00,,CLR,0.00,VWS V14.01,2013-04-03 12:28:00,
2013-04-03 07:29:00,29.4,21.5,30.35,NNE,13,2.0,4.0,72,0.00,,CLR,0.00,VWS V14.01,2013-04-03 12:29:00,
2013-04-03 07:30:00,29.6,21.7,30.35,NNE,13,0.0,4.0,72,0.00,,,0.00,VWS V14.01,2013-04-03 12:30:00,
2013-04-03 07:33:00,29.7,21.5,30.35,NNE,13,0.0,0.0,71,0.00,,CLR,0.00,VWS V14.01,2013-04-03 12:33:00,
2013-04-03 07:34:00,29.7,21.5,30.35,NNE,13,0.0,0.0,71,0.00,,CLR,0.00,VWS V14.01,2013-04-03 12:34:00,
2013-04-03 07:38:00,30.2,21.9,30.35,NNE,13,0.0,1.0,71,0.00,,CLR,0.00,VWS V14.01,2013-04-03 12:38:00,
2013-04-03 07:39:00,30.2,21.9,30.35,NNE,13,0.0,1.0,71,0.00,,CLR,0.00,VWS V14.01,2013-04-03 12:39:00,
2013-04-03 07:43:00,30.5,21.9,30.35,NNE,13,0.0,3.0,70,0.00,,CLR,0.00,VWS V14.01,2013-04-03 12:43:00,
2013-04-03 07:44:00,30.5,21.6,30.35,NNE,13,0.0,3.0,69,0.00,,CLR,0.00,VWS V14.01,2013-04-03 12:44:00,
2013-04-03 07:45:00,30.6,21.6,30.35,NNE,13,0.0,3.0,69,0.00,,CLR,0.00,VWS V14.01,2013-04-03 12:45:00,
2013-04-03 07:48:00,31.1,21.4,30.35,NNE,13,0.0,3.0,67,0.00,,CLR,0.00,VWS V14.01,2013-04-03 12:48:00,
2013-04-03 07:49:00,31.2,21.2,30.35,NE,44,3.0,5.0,66,0.00,,CLR,0.00,VWS V14.01,2013-04-03 12:49:00,
2013-04-03 07:50:00,31.2,20.8,30.35,NNE,30,0.0,5.0,65,0.00,,CLR,0.00,VWS V14.01,2013-04-03 12:50:00,
2013-04-03 07:54:00,31.8,21.0,30.35,NNE,12,4.0,5.0,64,0.00,,CLR,0.00,VWS V14.01,2013-04-03 12:54:00,
2013-04-03 07:55:00,32.0,20.9,30.35,NNE,12,2.0,5.0,63,0.00,,CLR,0.00,VWS V14.01,2013-04-03 12:55:00,
2013-04-03 07:59:00,32.4,20.9,30.35,NNE,24,0.0,5.0,62,0.00,,CLR,0.00,VWS V14.01,2013-04-03 12:59:00,
2013-04-03 08:00:00,32.6,21.0,30.35,NE,34,3.0,6.0,62,0.00,,CLR,0.00,VWS V14.01,2013-04-03 13:00:00,
2013-04-03 08:04:00,32.8,20.9,30.35,NNE,19,0.0,3.0,61,0.00,,CLR,0.00,VWS V14.01,2013-04-03 13:04:00,
2013-04-03 08:05:00,33.0,20.6,30.35,NNE,19,0.0,3.0,60,0.00,,CLR,0.00,VWS V14.01,2013-04-03 13:05:00,
2013-04-03 08:09:00,33.4,20.6,30.35,NNE,15,0.0,4.0,59,0.00,,CLR,0.00,VWS V14.01,2013-04-03 13:09:00,
2013-04-03 08:10:00,33.6,20.8,30.35,NNE,15,0.0,4.0,59,0.00,,CLR,0.00,VWS V14.01,2013-04-03 13:10:00,
2013-04-03 08:14:00,33.9,20.7,30.35,NE,37,0.0,7.0,58,0.00,,CLR,0.00,VWS V14.01,2013-04-03 13:14:00,
2013-04-03 08:15:00,33.9,20.3,30.35,NNE,18,3.0,7.0,57,0.00,,CLR,0.00,VWS V14.01,2013-04-03 13:15:00,
2013-04-03 08:19:00,33.9,20.3,30.35,ENE,72,4.0,7.0,57,0.00,,CLR,0.00,VWS V14.01,2013-04-03 13:19:00,
2013-04-03 08:20:00,34.0,20.4,30.35,NNE,31,0.0,7.0,57,0.00,,CLR,0.00,VWS V14.01,2013-04-03 13:20:00,
2013-04-03 08:24:00,34.2,20.6,30.35,North,360,1.0,7.0,57,0.00,,CLR,0.00,VWS V14.01,2013-04-03 13:24:00,
2013-04-03 08:25:00,34.2,20.6,30.35,North,5,0.0,7.0,57,0.00,,CLR,0.00,VWS V14.01,2013-04-03 13:25:00,
2013-04-03 08:29:00,34.6,21.0,30.37,North,9,0.0,7.0,57,0.00,,CLR,0.00,VWS V14.01,2013-04-03 13:29:00,
2013-04-03 08:30:00,34.8,21.1,30.37,North,9,1.0,1.0,57,0.00,,CLR,0.00,VWS V14.01,2013-04-03 13:30:00,
2013-04-03 08:31:00,34.8,20.7,30.37,North,9,0.0,1.0,56,0.00,,CLR,0.00,VWS V14.01,2013-04-03 13:31:00,
2013-04-03 08:34:00,35.1,21.0,30.37,NE,41,0.0,4.0,56,0.00,,CLR,0.00,VWS V14.01,2013-04-03 13:34:00,
2013-04-03 08:35:00,35.1,21.0,30.37,NNE,19,0.0,4.0,56,0.00,,CLR,0.00,VWS V14.01,2013-04-03 13:35:00,
2013-04-03 08:36:00,35.1,21.0,30.37,NNE,15,0.0,5.0,56,0.00,,CLR,0.00,VWS V14.01,2013-04-03 13:36:00,
2013-04-03 08:39:00,35.2,21.1,30.37,NNE,14,0.0,5.0,56,0.00,,CLR,0.00,VWS V14.01,2013-04-03 13:39:00,
2013-04-03 08:40:00,35.2,21.1,30.37,NNE,23,1.0,5.0,56,0.00,,CLR,0.00,VWS V14.01,2013-04-03 13:40:00,
2013-04-03 08:41:00,35.2,21.1,30.37,NE,38,1.0,5.0,56,0.00,,CLR,0.00,VWS V14.01,2013-04-03 13:41:00,
2013-04-03 08:44:00,35.5,21.4,30.36,NNE,27,0.0,5.0,56,0.00,,CLR,0.00,VWS V14.01,2013-04-03 13:44:00,
2013-04-03 08:45:00,35.7,21.6,30.36,North,5,0.0,5.0,56,0.00,,CLR,0.00,VWS V14.01,2013-04-03 13:45:00,
2013-04-03 08:46:00,35.7,21.6,30.36,NNE,23,5.0,5.0,56,0.00,,CLR,0.00,VWS V14.01,2013-04-03 13:46:00,
2013-04-03 08:49:00,35.7,21.6,30.36,NNE,17,4.0,6.0,56,0.00,,CLR,0.00,VWS V14.01,2013-04-03 13:49:00,
2013-04-03 08:50:00,35.8,21.6,30.36,NNE,18,0.0,6.0,56,0.00,,CLR,0.00,VWS V14.01,2013-04-03 13:50:00,
2013-04-03 08:51:00,35.8,21.6,30.36,NNE,17,0.0,6.0,56,0.00,,CLR,0.00,VWS V14.01,2013-04-03 13:51:00,
2013-04-03 08:52:00,35.8,21.6,30.36,NNE,17,0.0,6.0,56,0.00,,CLR,0.00,VWS V14.01,2013-04-03 13:52:00,
2013-04-03 08:55:00,36.2,22.0,30.36,NNE,18,0.0,6.0,56,0.00,,CLR,0.00,VWS V14.01,2013-04-03 13:55:00,
2013-04-03 08:57:00,36.5,21.9,30.36,NNE,18,0.0,6.0,55,0.00,,CLR,0.00,VWS V14.01,2013-04-03 13:57:00,
2013-04-03 09:00:00,37.1,22.9,30.37,NNE,19,0.0,6.0,56,0.00,,CLR,0.00,VWS V14.01,2013-04-03 14:00:00,
2013-04-03 09:01:00,37.2,22.5,30.37,NNE,19,0.0,0.0,55,0.00,,CLR,0.00,VWS V14.01,2013-04-03 14:01:00,
2013-04-03 09:02:00,37.4,22.3,30.37,NNE,19,0.0,2.0,54,0.00,,CLR,0.00,VWS V14.01,2013-04-03 14:02:00,
2013-04-03 09:05:00,37.4,21.4,30.37,NE,35,3.0,4.0,52,0.00,,CLR,0.00,VWS V14.01,2013-04-03 14:05:00,
2013-04-03 09:06:00,37.4,21.9,30.37,NE,50,3.0,4.0,53,0.00,,CLR,0.00,VWS V14.01,2013-04-03 14:06:00,
2013-04-03 09:07:00,37.2,21.2,30.37,NE,53,5.0,5.0,52,0.00,,CLR,0.00,VWS V14.01,2013-04-03 14:07:00,
2013-04-03 09:10:00,37.1,21.6,30.37,ENE,59,4.0,5.0,53,0.00,,CLR,0.00,VWS V14.01,2013-04-03 14:10:00,
2013-04-03 09:11:00,37.1,20.7,30.37,NNE,22,4.0,5.0,51,0.00,,CLR,0.00,VWS V14.01,2013-04-03 14:11:00,
2013-04-03 09:12:00,37.1,21.1,30.37,NNE,28,0.0,5.0,52,0.00,,CLR,0.00,VWS V14.01,2013-04-03 14:12:00,
2013-04-03 09:13:00,37.1,21.1,30.37,NNE,14,1.0,5.0,52,0.00,,CLR,0.00,VWS V14.01,2013-04-03 14:13:00,
2013-04-03 09:15:00,37.2,21.2,30.37,NNE,16,0.0,5.0,52,0.00,,CLR,0.00,VWS V14.01,2013-04-03 14:15:00,
2013-04-03 09:17:00,37.4,21.4,30.37,NNE,18,0.0,5.0,52,0.00,,CLR,0.00,VWS V14.01,2013-04-03 14:17:00,
2013-04-03 09:18:00,37.7,21.7,30.37,NNE,19,0.0,5.0,52,0.00,,CLR,0.00,VWS V14.01,2013-04-03 14:18:00,
2013-04-03 09:20:00,37.8,21.3,30.37,NNE,17,3.0,5.0,51,0.00,,CLR,0.00,VWS V14.01,2013-04-03 14:20:00,
2013-04-03 09:22:00,37.9,21.4,30.37,NNE,22,0.0,5.0,51,0.00,,CLR,0.00,VWS V14.01,2013-04-03 14:22:00,
2013-04-03 09:23:00,38.1,22.5,30.37,NNE,29,4.0,5.0,53,0.00,,CLR,0.00,VWS V14.01,2013-04-03 14:23:00,
2013-04-03 09:25:00,38.1,21.1,30.37,NNE,14,3.0,5.0,50,0.00,,CLR,0.00,VWS V14.01,2013-04-03 14:25:00,
2013-04-03 09:27:00,38.1,21.1,30.37,NNE,13,1.0,5.0,50,0.00,,CLR,0.00,VWS V14.01,2013-04-03 14:27:00,
2013-04-03 09:28:00,38.1,21.6,30.37,NNE,27,5.0,5.0,51,0.00,,CLR,0.00,VWS V14.01,2013-04-03 14:28:00,
2013-04-03 09:29:00,38.1,21.1,30.37,NNE,28,0.0,5.0,50,0.00,,CLR,0.00,VWS V14.01,2013-04-03 14:29:00,
2013-04-03 09:30:00,38.2,21.7,30.37,NE,36,1.0,2.0,51,0.00,,CLR,0.00,VWS V14.01,2013-04-03 14:30:00,
2013-04-03 09:32:00,38.4,21.4,30.37,North,355,0.0,3.0,50,0.00,,CLR,0.00,VWS V14.01,2013-04-03 14:32:00,
2013-04-03 09:33:00,38.4,21.4,30.37,North,355,0.0,3.0,50,0.00,,CLR,0.00,VWS V14.01,2013-04-03 14:33:00,
2013-04-03 09:34:00,38.5,21.5,30.37,NNE,22,0.0,3.0,50,0.00,,CLR,0.00,VWS V14.01,2013-04-03 14:34:00,
2013-04-03 09:35:00,38.7,22.1,30.37,NE,40,2.0,3.0,51,0.00,,CLR,0.00,VWS V14.01,2013-04-03 14:35:00,
2013-04-03 09:37:00,38.8,22.2,30.37,NNE,28,1.0,4.0,51,0.00,,CLR,0.00,VWS V14.01,2013-04-03 14:37:00,
2013-04-03 09:38:00,38.8,22.2,30.37,NNE,28,0.0,4.0,51,0.00,,CLR,0.00,VWS V14.01,2013-04-03 14:38:00,
2013-04-03 09:39:00,39.0,22.4,30.37,NNE,28,0.0,4.0,51,0.00,,CLR,0.00,VWS V14.01,2013-04-03 14:39:00,
2013-04-03 09:40:00,39.1,21.6,30.37,North,9,0.0,4.0,49,0.00,,CLR,0.00,VWS V14.01,2013-04-03 14:40:00,
2013-04-03 09:43:00,39.5,21.9,30.37,East,92,0.0,5.0,49,0.00,,CLR,0.00,VWS V14.01,2013-04-03 14:43:00,
2013-04-03 09:44:00,39.5,21.5,30.37,NE,45,0.0,5.0,48,0.00,,CLR,0.00,VWS V14.01,2013-04-03 14:44:00,
2013-04-03 09:45:00,39.7,20.6,30.36,East,98,0.0,5.0,46,0.00,,CLR,0.00,VWS V14.01,2013-04-03 14:45:00,
2013-04-03 09:48:00,39.8,21.7,30.36,NNE,25,0.0,5.0,48,0.00,,CLR,0.00,VWS V14.01,2013-04-03 14:48:00,
2013-04-03 09:49:00,40.1,22.5,30.36,NNE,27,0.0,5.0,49,0.00,,CLR,0.00,VWS V14.01,2013-04-03 14:49:00,
2013-04-03 09:51:00,40.5,22.4,30.36,ESE,103,0.0,5.0,48,0.00,,CLR,0.00,VWS V14.01,2013-04-03 14:51:00,
2013-04-03 09:53:00,40.7,22.1,30.36,NE,35,0.0,5.0,47,0.00,,CLR,0.00,VWS V14.01,2013-04-03 14:53:00,
2013-04-03 09:54:00,40.8,22.6,30.36,NNE,32,2.0,5.0,48,0.00,,CLR,0.00,VWS V14.01,2013-04-03 14:54:00,
2013-04-03 09:57:00,40.8,22.1,30.36,ESE,106,6.0,6.0,47,0.00,,CLR,0.00,VWS V14.01,2013-04-03 14:57:00,
2013-04-03 09:58:00,40.8,20.0,30.36,NE,39,0.0,6.0,43,0.00,,CLR,0.00,VWS V14.01,2013-04-03 14:58:00,
2013-04-03 09:59:00,41.0,20.2,30.36,ENE,76,1.0,6.0,43,0.00,,CLR,0.00,VWS V14.01,2013-04-03 14:59:00,
2013-04-03 10:00:00,41.1,20.3,30.36,ENE,73,0.0,6.0,43,0.00,,,0.00,VWS V14.01,2013-04-03 15:00:00,
2013-04-03 10:02:00,41.2,19.9,30.36,ENE,70,0.0,3.0,42,0.00,,CLR,0.00,VWS V14.01,2013-04-03 15:02:00,
2013-04-03 10:03:00,41.2,19.9,30.36,NE,42,0.0,3.0,42,0.00,,CLR,0.00,VWS V14.01,2013-04-03 15:03:00,
2013-04-03 10:04:00,41.2,19.9,30.36,NE,42,0.0,3.0,42,0.00,,CLR,0.00,VWS V14.01,2013-04-03 15:04:00,
2013-04-03 10:07:00,41.5,21.2,30.36,NE,54,0.0,3.0,44,0.00,,CLR,0.00,VWS V14.01,2013-04-03 15:07:00,
2013-04-03 10:08:00,41.7,21.4,30.36,ESE,116,0.0,3.0,44,0.00,,CLR,0.00,VWS V14.01,2013-04-03 15:08:00,
2013-04-03 10:09:00,41.7,21.4,30.36,North,5,5.0,6.0,44,0.00,,CLR,0.00,VWS V14.01,2013-04-03 15:09:00,
2013-04-03 10:12:00,41.8,19.8,30.36,NNE,31,0.0,7.0,41,0.00,,CLR,0.00,VWS V14.01,2013-04-03 15:12:00,
2013-04-03 10:14:00,41.8,20.4,30.36,ESE,102,2.0,7.0,42,0.00,,CLR,0.00,VWS V14.01,2013-04-03 15:14:00,
2013-04-03 10:15:00,42.0,20.0,30.36,NE,56,0.0,7.0,41,0.00,,CLR,0.00,VWS V14.01,2013-04-03 15:15:00,
2013-04-03 10:17:00,42.1,19.0,30.36,NE,44,1.0,7.0,39,0.00,,CLR,0.00,VWS V14.01,2013-04-03 15:17:00,
2013-04-03 10:19:00,42.1,19.0,30.36,NE,51,10.0,10.0,39,0.00,,CLR,0.00,VWS V14.01,2013-04-03 15:19:00,
2013-04-03 10:20:00,42.0,17.6,30.36,NNE,24,0.0,10.0,37,0.00,,CLR,0.00,VWS V14.01,2013-04-03 15:20:00,
2013-04-03 10:23:00,42.0,18.2,30.36,East,91,0.0,10.0,38,0.00,,CLR,0.00,VWS V14.01,2013-04-03 15:23:00,
2013-04-03 10:24:00,42.0,18.2,30.36,ENE,57,0.0,10.0,38,0.00,,CLR,0.00,VWS V14.01,2013-04-03 15:24:00,
2013-04-03 10:25:00,42.1,18.3,30.36,ESE,122,0.0,10.0,38,0.00,,CLR,0.00,VWS V14.01,2013-04-03 15:25:00,
2013-04-03 10:26:00,42.1,18.3,30.36,NE,36,6.0,10.0,38,0.00,,CLR,0.00,VWS V14.01,2013-04-03 15:26:00,
2013-04-03 10:28:00,42.2,19.6,30.36,NE,54,0.0,10.0,40,0.00,,CLR,0.00,VWS V14.01,2013-04-03 15:28:00,
2013-04-03 10:29:00,42.4,20.4,30.36,ESE,103,0.0,10.0,41,0.00,,CLR,0.00,VWS V14.01,2013-04-03 15:29:00,
2013-04-03 10:30:00,42.4,19.2,30.36,ENE,78,0.0,10.0,39,0.00,,CLR,0.00,VWS V14.01,2013-04-03 15:30:00,
2013-04-03 10:31:00,42.4,18.0,30.36,NE,45,0.0,9.0,37,0.00,,CLR,0.00,VWS V14.01,2013-04-03 15:31:00,
2013-04-03 10:33:00,42.2,19.0,30.36,East,100,0.0,9.0,39,0.00,,CLR,0.00,VWS V14.01,2013-04-03 15:33:00,
2013-04-03 10:34:00,42.2,19.0,30.36,ESE,112,0.0,9.0,39,0.00,,CLR,0.00,VWS V14.01,2013-04-03 15:34:00,
2013-04-03 10:35:00,42.4,20.4,30.36,East,101,0.0,9.0,41,0.00,,CLR,0.00,VWS V14.01,2013-04-03 15:35:00,
2013-04-03 10:37:00,42.4,19.2,30.36,ESE,119,2.0,9.0,39,0.00,,CLR,0.00,VWS V14.01,2013-04-03 15:37:00,
2013-04-03 10:38:00,42.5,18.7,30.36,East,98,5.0,9.0,38,0.00,,CLR,0.00,VWS V14.01,2013-04-03 15:38:00,
2013-04-03 10:39:00,42.7,20.1,30.36,ENE,60,1.0,9.0,40,0.00,,CLR,0.00,VWS V14.01,2013-04-03 15:39:00,
2013-04-03 10:40:00,42.8,19.6,30.36,East,80,0.0,9.0,39,0.00,,CLR,0.00,VWS V14.01,2013-04-03 15:40:00,
2013-04-03 10:42:00,42.8,17.7,30.36,NE,54,3.0,9.0,36,0.00,,CLR,0.00,VWS V14.01,2013-04-03 15:42:00,
2013-04-03 10:44:00,43.0,17.9,30.36,ESE,104,2.0,9.0,36,0.00,,CLR,0.00,VWS V14.01,2013-04-03 15:44:00,
2013-04-03 10:46:00,43.1,17.3,30.35,ENE,57,3.0,9.0,35,0.00,,CLR,0.00,VWS V14.01,2013-04-03 15:46:00,
2013-04-03 10:47:00,43.1,18.0,30.35,North,9,0.0,9.0,36,0.00,,CLR,0.00,VWS V14.01,2013-04-03 15:47:00,
2013-04-03 10:49:00,43.2,20.5,30.35,ESE,116,0.0,9.0,40,0.00,,CLR,0.00,VWS V14.01,2013-04-03 15:49:00,
2013-04-03 10:51:00,43.4,18.2,30.35,NNW,340,0.0,9.0,36,0.00,,CLR,0.00,VWS V14.01,2013-04-03 15:51:00,
2013-04-03 10:52:00,43.4,17.6,30.35,NNW,341,0.0,9.0,35,0.00,,CLR,0.00,VWS V14.01,2013-04-03 15:52:00,
2013-04-03 10:54:00,43.5,18.3,30.35,ENE,68,0.0,9.0,36,0.00,,CLR,0.00,VWS V14.01,2013-04-03 15:54:00,
2013-04-03 10:56:00,43.5,17.7,30.35,ENE,57,3.0,9.0,35,0.00,,CLR,0.00,VWS V14.01,2013-04-03 15:56:00,
2013-04-03 10:58:00,43.4,19.5,30.35,East,86,1.0,9.0,38,0.00,,CLR,0.00,VWS V14.01,2013-04-03 15:58:00,
2013-04-03 10:59:00,43.5,19.0,30.36,NNE,13,3.0,11.0,37,0.00,,CLR,0.00,VWS V14.01,2013-04-03 15:59:00,
2013-04-03 11:00:00,43.5,19.0,30.36,NW,310,0.0,11.0,37,0.00,,CLR,0.00,VWS V14.01,2013-04-03 16:00:00,
2013-04-03 11:01:00,43.7,19.1,30.36,NNW,347,0.0,1.0,37,0.00,,CLR,0.00,VWS V14.01,2013-04-03 16:01:00,
2013-04-03 11:03:00,43.7,18.5,30.36,North,350,0.0,1.0,36,0.00,,CLR,0.00,VWS V14.01,2013-04-03 16:03:00,
2013-04-03 11:04:00,43.5,18.3,30.36,SE,138,2.0,8.0,36,0.00,,CLR,0.00,VWS V14.01,2013-04-03 16:04:00,
2013-04-03 11:05:00,43.5,17.7,30.36,SE,141,3.0,8.0,35,0.00,,CLR,0.00,VWS V14.01,2013-04-03 16:05:00,
2013-04-03 11:07:00,43.2,17.4,30.36,NE,35,1.0,8.0,35,0.00,,CLR,0.00,VWS V14.01,2013-04-03 16:07:00,
2013-04-03 11:08:00,43.2,18.1,30.36,NNE,26,0.0,8.0,36,0.00,,CLR,0.00,VWS V14.01,2013-04-03 16:08:00,
2013-04-03 11:09:00,43.2,17.4,30.36,NE,36,4.0,8.0,35,0.00,,CLR,0.00,VWS V14.01,2013-04-03 16:09:00,
2013-04-03 11:10:00,43.2,17.4,30.36,ENE,74,0.0,8.0,35,0.00,,CLR,0.00,VWS V14.01,2013-04-03 16:10:00,
2013-04-03 11:12:00,43.2,18.1,30.36,SE,142,1.0,8.0,36,0.00,,CLR,0.00,VWS V14.01,2013-04-03 16:12:00,
2013-04-03 11:13:00,43.2,17.4,30.36,East,91,2.0,8.0,35,0.00,,CLR,0.00,VWS V14.01,2013-04-03 16:13:00,
2013-04-03 11:14:00,43.1,16.7,30.36,ESE,105,0.0,8.0,34,0.00,,CLR,0.00,VWS V14.01,2013-04-03 16:14:00,
2013-04-03 11:15:00,43.0,15.9,30.36,ESE,103,0.0,8.0,33,0.00,,CLR,0.00,VWS V14.01,2013-04-03 16:15:00,
2013-04-03 11:17:00,43.0,17.9,30.36,ENE,59,5.0,8.0,36,0.00,,CLR,0.00,VWS V14.01,2013-04-03 16:17:00,
2013-04-03 11:18:00,43.0,17.2,30.36,NNE,16,4.0,8.0,35,0.00,,CLR,0.00,VWS V14.01,2013-04-03 16:18:00,
2013-04-03 11:20:00,43.1,18.0,30.36,NNE,30,0.0,8.0,36,0.00,,CLR,0.00,VWS V14.01,2013-04-03 16:20:00,
2013-04-03 11:22:00,43.4,17.6,30.36,ENE,74,1.0,8.0,35,0.00,,CLR,0.00,VWS V14.01,2013-04-03 16:22:00,
2013-04-03 11:25:00,43.4,18.2,30.36,East,96,1.0,8.0,36,0.00,,CLR,0.00,VWS V14.01,2013-04-03 16:25:00,
2013-04-03 11:26:00,43.2,17.4,30.36,ENE,74,0.0,8.0,35,0.00,,CLR,0.00,VWS V14.01,2013-04-03 16:26:00,
2013-04-03 11:27:00,43.1,17.3,30.36,NE,51,0.0,8.0,35,0.00,,CLR,0.00,VWS V14.01,2013-04-03 16:27:00,
2013-04-03 11:30:00,43.4,18.2,30.36,ENE,62,0.0,8.0,36,0.00,,CLR,0.00,VWS V14.01,2013-04-03 16:30:00,
2013-04-03 11:31:00,43.7,19.8,30.36,NNE,24,7.0,7.0,38,0.00,,CLR,0.00,VWS V14.01,2013-04-03 16:31:00,
2013-04-03 11:33:00,43.8,18.0,30.36,North,360,2.0,7.0,35,0.00,,CLR,0.00,VWS V14.01,2013-04-03 16:33:00,
2013-04-03 11:35:00,43.8,18.0,30.36,NNE,15,0.0,10.0,35,0.00,,CLR,0.00,VWS V14.01,2013-04-03 16:35:00,
2013-04-03 11:37:00,44.0,18.8,30.36,NNW,346,0.0,10.0,36,0.00,,CLR,0.00,VWS V14.01,2013-04-03 16:37:00,
2013-04-03 11:38:00,44.1,18.9,30.36,ENE,66,2.0,10.0,36,0.00,,CLR,0.00,VWS V14.01,2013-04-03 16:38:00,
2013-04-03 11:40:00,44.1,18.2,30.36,SE,126,1.0,10.0,35,0.00,,CLR,0.00,VWS V14.01,2013-04-03 16:40:00,
2013-04-03 11:42:00,44.0,16.8,30.36,SE,126,0.0,10.0,33,0.00,,CLR,0.00,VWS V14.01,2013-04-03 16:42:00,
2013-04-03 11:43:00,43.8,16.6,30.36,ENE,72,1.0,10.0,33,0.00,,CLR,0.00,VWS V14.01,2013-04-03 16:43:00,
2013-04-03 11:45:00,44.2,20.2,30.36,NE,42,3.0,10.0,38,0.00,,CLR,0.00,VWS V14.01,2013-04-03 16:45:00,
2013-04-03 11:48:00,44.7,20.0,30.36,East,95,0.0,10.0,37,0.00,,CLR,0.00,VWS V14.01,2013-04-03 16:48:00,
2013-04-03 11:49:00,44.8,18.2,30.36,SE,137,0.0,10.0,34,0.00,,CLR,0.00,VWS V14.01,2013-04-03 16:49:00,
2013-04-03 11:50:00,44.7,18.1,30.36,ESE,104,0.0,10.0,34,0.00,,CLR,0.00,VWS V14.01,2013-04-03 16:50:00,
2013-04-03 11:53:00,44.5,17.9,30.36,SSE,161,0.0,10.0,34,0.00,,CLR,0.00,VWS V14.01,2013-04-03 16:53:00,
2013-04-03 11:54:00,44.5,19.2,30.36,SE,134,5.0,10.0,36,0.00,,CLR,0.00,VWS V14.01,2013-04-03 16:54:00,
2013-04-03 11:55:00,44.5,17.9,30.36,ESE,108,0.0,10.0,34,0.00,,CLR,0.00,VWS V14.01,2013-04-03 16:55:00,
2013-04-03 11:58:00,45.0,17.6,30.36,SE,137,0.0,10.0,33,0.00,,CLR,0.00,VWS V14.01,2013-04-03 16:58:00,
2013-04-03 12:00:00,45.1,17.7,30.35,NE,42,4.0,10.0,33,0.00,,CLR,0.00,VWS V14.01,2013-04-03 17:00:00,
2013-04-03 12:04:00,44.7,15.9,30.35,ENE,71,0.0,13.0,31,0.00,,CLR,0.00,VWS V14.01,2013-04-03 17:04:00,
2013-04-03 12:05:00,44.5,17.2,30.35,ENE,76,3.0,13.0,33,0.00,,CLR,0.00,VWS V14.01,2013-04-03 17:05:00,
2013-04-03 12:07:00,44.7,18.8,30.35,East,99,2.0,13.0,35,0.00,,CLR,0.00,VWS V14.01,2013-04-03 17:07:00,
2013-04-03 12:09:00,44.7,17.4,30.35,NE,36,0.0,13.0,33,0.00,,CLR,0.00,VWS V14.01,2013-04-03 17:09:00,
2013-04-03 12:10:00,44.7,18.1,30.35,NE,56,2.0,13.0,34,0.00,,CLR,0.00,VWS V14.01,2013-04-03 17:10:00,
2013-04-03 12:12:00,44.8,18.2,30.35,ENE,73,0.0,13.0,34,0.00,,CLR,0.00,VWS V14.01,2013-04-03 17:12:00,
2013-04-03 12:14:00,45.1,17.7,30.35,NNE,19,0.0,13.0,33,0.00,,CLR,0.00,VWS V14.01,2013-04-03 17:14:00,
2013-04-03 12:15:00,45.1,17.0,30.34,NE,42,1.0,13.0,32,0.00,,CLR,0.00,VWS V14.01,2013-04-03 17:15:00,
2013-04-03 12:17:00,45.1,17.7,30.34,NE,44,0.0,13.0,33,0.00,,CLR,0.00,VWS V14.01,2013-04-03 17:17:00,
2013-04-03 12:19:00,45.1,16.3,30.34,East,100,8.0,13.0,31,0.00,,CLR,0.00,VWS V14.01,2013-04-03 17:19:00,
2013-04-03 12:20:00,45.1,17.0,30.34,North,11,4.0,13.0,32,0.00,,CLR,0.00,VWS V14.01,2013-04-03 17:20:00,
2013-04-03 12:23:00,45.3,17.9,30.34,SE,137,2.0,13.0,33,0.00,,CLR,0.00,VWS V14.01,2013-04-03 17:23:00,
2013-04-03 12:25:00,45.4,18.7,30.34,SE,128,4.0,13.0,34,0.00,,CLR,0.00,VWS V14.01,2013-04-03 17:25:00,
2013-04-03 12:28:00,45.9,18.4,30.34,East,81,0.0,13.0,33,0.00,,CLR,0.00,VWS V14.01,2013-04-03 17:28:00,
2013-04-03 12:30:00,45.7,16.8,30.33,NNE,15,0.0,0.0,31,0.00,,CLR,0.00,VWS V14.01,2013-04-03 17:30:00,
2013-04-03 12:31:00,45.7,16.8,30.33,ENE,71,6.0,10.0,31,0.00,,CLR,0.00,VWS V14.01,2013-04-03 17:31:00,
2013-04-03 12:33:00,45.4,17.3,30.33,ENE,60,5.0,10.0,32,0.00,,CLR,0.00,VWS V14.01,2013-04-03 17:33:00,
2013-04-03 12:35:00,45.3,17.9,30.33,NE,48,0.0,10.0,33,0.00,,CLR,0.00,VWS V14.01,2013-04-03 17:35:00,
2013-04-03 12:36:00,45.3,17.9,30.33,ENE,62,11.0,11.0,33,0.00,,CLR,0.00,VWS V14.01,2013-04-03 17:36:00,
2013-04-03 12:38:00,45.1,17.7,30.33,NNE,31,11.0,14.0,33,0.00,,CLR,0.00,VWS V14.01,2013-04-03 17:38:00,
2013-04-03 12:40:00,45.1,18.4,30.33,NNE,22,5.0,14.0,34,0.00,,CLR,0.00,VWS V14.01,2013-04-03 17:40:00,
2013-04-03 12:41:00,45.4,20.0,30.33,ENE,67,0.0,14.0,36,0.00,,CLR,0.00,VWS V14.01,2013-04-03 17:41:00,
2013-04-03 12:42:00,45.6,19.5,30.33,ENE,73,0.0,14.0,35,0.00,,CLR,0.00,VWS V14.01,2013-04-03 17:42:00,
2013-04-03 12:43:00,45.7,19.6,30.33,East,81,0.0,14.0,35,0.00,,CLR,0.00,VWS V14.01,2013-04-03 17:43:00,
2013-04-03 12:45:00,46.0,18.5,30.33,ENE,70,10.0,14.0,33,0.00,,CLR,0.00,VWS V14.01,2013-04-03 17:45:00,
2013-04-03 12:47:00,45.7,18.3,30.33,North,360,6.0,14.0,33,0.00,,CLR,0.00,VWS V14.01,2013-04-03 17:47:00,
2013-04-03 12:48:00,45.6,18.2,30.33,North,5,5.0,14.0,33,0.00,,CLR,0.00,VWS V14.01,2013-04-03 17:48:00,
2013-04-03 12:51:00,45.6,19.5,30.33,SE,138,5.0,14.0,35,0.00,,CLR,0.00,VWS V14.01,2013-04-03 17:51:00,
2013-04-03 12:52:00,45.6,17.5,30.33,NE,55,5.0,14.0,32,0.00,,CLR,0.00,VWS V14.01,2013-04-03 17:52:00,
2013-04-03 12:53:00,45.7,19.0,30.33,East,87,3.0,14.0,34,0.00,,CLR,0.00,VWS V14.01,2013-04-03 17:53:00,
2013-04-03 12:56:00,46.3,19.5,30.33,East,98,0.0,14.0,34,0.00,,CLR,0.00,VWS V14.01,2013-04-03 17:56:00,
2013-04-03 12:57:00,46.4,19.6,30.33,ENE,65,0.0,14.0,34,0.00,,CLR,0.00,VWS V14.01,2013-04-03 17:57:00,
2013-04-03 12:59:00,46.6,18.3,30.33,SE,130,0.0,14.0,32,0.00,,CLR,0.00,VWS V14.01,2013-04-03 17:59:00,
2013-04-03 13:00:00,46.9,20.7,30.32,ESE,102,1.0,14.0,35,0.00,,,0.00,VWS V14.01,2013-04-03 18:00:00,
2013-04-03 13:01:00,46.7,18.4,30.32,East,90,2.0,11.0,32,0.00,,CLR,0.00,VWS V14.01,2013-04-03 18:01:00,
2013-04-03 13:02:00,46.9,17.9,30.32,NE,46,5.0,11.0,31,0.00,,CLR,0.00,VWS V14.01,2013-04-03 18:02:00,
2013-04-03 13:04:00,46.9,17.9,30.32,ENE,62,1.0,11.0,31,0.00,,CLR,0.00,VWS V14.01,2013-04-03 18:04:00,
2013-04-03 13:07:00,46.7,18.4,30.32,NE,55,4.0,11.0,32,0.00,,CLR,0.00,VWS V14.01,2013-04-03 18:07:00,
2013-04-03 13:08:00,46.4,15.9,30.32,East,101,2.0,11.0,29,0.00,,CLR,0.00,VWS V14.01,2013-04-03 18:08:00,
2013-04-03 13:09:00,46.1,16.4,30.32,SE,136,0.0,11.0,30,0.00,,CLR,0.00,VWS V14.01,2013-04-03 18:09:00,
2013-04-03 13:12:00,46.0,17.8,30.32,NNE,21,8.0,11.0,32,0.00,,CLR,0.00,VWS V14.01,2013-04-03 18:12:00,
2013-04-03 13:13:00,46.0,17.8,30.32,NNE,15,0.0,11.0,32,0.00,,CLR,0.00,VWS V14.01,2013-04-03 18:13:00,
2013-04-03 13:14:00,46.1,18.6,30.31,North,355,2.0,11.0,33,0.00,,CLR,0.00,VWS V14.01,2013-04-03 18:14:00,
2013-04-03 13:17:00,46.4,19.6,30.31,NE,38,3.0,11.0,34,0.00,,CLR,0.00,VWS V14.01,2013-04-03 18:17:00,
2013-04-03 13:18:00,46.6,19.8,30.31,NE,42,7.0,11.0,34,0.00,,CLR,0.00,VWS V14.01,2013-04-03 18:18:00,
2013-04-03 13:19:00,46.9,19.3,30.31,NNE,30,15.0,15.0,33,0.00,,CLR,0.00,VWS V14.01,2013-04-03 18:19:00,
2013-04-03 13:23:00,46.9,18.6,30.31,SSE,151,0.0,15.0,32,0.00,,CLR,0.00,VWS V14.01,2013-04-03 18:23:00,
2013-04-03 13:24:00,46.9,20.0,30.31,SSE,168,0.0,15.0,34,0.00,,CLR,0.00,VWS V14.01,2013-04-03 18:24:00,
2013-04-03 13:28:00,46.6,18.3,30.31,NE,55,0.0,15.0,32,0.00,,CLR,0.00,VWS V14.01,2013-04-03 18:28:00,
2013-04-03 13:29:00,46.6,19.0,30.30,NE,53,5.0,15.0,33,0.00,,CLR,0.00,VWS V14.01,2013-04-03 18:29:00,
2013-04-03 13:30:00,46.7,19.1,30.30,NE,49,6.0,15.0,33,0.00,,,0.00,VWS V14.01,2013-04-03 18:30:00,
2013-04-03 13:33:00,47.0,20.1,30.30,East,99,7.0,14.0,34,0.00,,CLR,0.00,VWS V14.01,2013-04-03 18:33:00,
2013-04-03 13:34:00,46.9,17.9,30.30,ENE,70,6.0,14.0,31,0.00,,CLR,0.00,VWS V14.01,2013-04-03 18:34:00,
2013-04-03 13:35:00,46.9,20.0,30.30,SE,131,9.0,14.0,34,0.00,,CLR,0.00,VWS V14.01,2013-04-03 18:35:00,
2013-04-03 13:38:00,46.9,19.3,30.30,SSE,147,7.0,14.0,33,0.00,,CLR,0.00,VWS V14.01,2013-04-03 18:38:00,
2013-04-03 13:39:00,46.9,19.3,30.30,East,101,7.0,14.0,33,0.00,,CLR,0.00,VWS V14.01,2013-04-03 18:39:00,
2013-04-03 13:40:00,46.9,19.3,30.30,ESE,105,5.0,14.0,33,0.00,,CLR,0.00,VWS V14.01,2013-04-03 18:40:00,
2013-04-03 13:43:00,47.0,18.0,30.30,ENE,65,5.0,14.0,31,0.00,,CLR,0.00,VWS V14.01,2013-04-03 18:43:00,
2013-04-03 13:44:00,47.0,18.0,30.30,ENE,60,4.0,14.0,31,0.00,,CLR,0.00,VWS V14.01,2013-04-03 18:44:00,
2013-04-03 13:45:00,47.0,19.4,30.30,ESE,108,9.0,14.0,33,0.00,,CLR,0.00,VWS V14.01,2013-04-03 18:45:00,
2013-04-03 13:48:00,47.3,19.0,30.30,ENE,63,5.0,14.0,32,0.00,,CLR,0.00,VWS V14.01,2013-04-03 18:48:00,
2013-04-03 13:49:00,47.3,18.2,30.30,ESE,120,6.0,14.0,31,0.00,,CLR,0.00,VWS V14.01,2013-04-03 18:49:00,
2013-04-03 13:50:00,47.2,19.6,30.30,SE,130,6.0,14.0,33,0.00,,CLR,0.00,VWS V14.01,2013-04-03 18:50:00,
2013-04-03 13:53:00,47.3,21.0,30.30,East,95,4.0,14.0,35,0.00,,CLR,0.00,VWS V14.01,2013-04-03 18:53:00,
2013-04-03 13:54:00,47.3,19.0,30.30,East,101,3.0,14.0,32,0.00,,CLR,0.00,VWS V14.01,2013-04-03 18:54:00,
2013-04-03 13:55:00,47.3,19.0,30.30,SE,135,5.0,14.0,32,0.00,,CLR,0.00,VWS V14.01,2013-04-03 18:55:00,
2013-04-03 13:58:00,47.2,19.6,30.30,NE,56,2.0,14.0,33,0.00,,CLR,0.00,VWS V14.01,2013-04-03 18:58:00,
2013-04-03 14:00:00,47.5,22.5,30.29,East,99,8.0,14.0,37,0.00,,CLR,0.00,VWS V14.01,2013-04-03 19:00:00,
2013-04-03 14:03:00,47.6,19.9,30.29,East,94,10.0,11.0,33,0.00,,CLR,0.00,VWS V14.01,2013-04-03 19:03:00,
2013-04-03 14:05:00,47.6,18.5,30.29,ESE,112,5.0,12.0,31,0.00,,CLR,0.00,VWS V14.01,2013-04-03 19:05:00,
2013-04-03 14:08:00,48.1,21.8,30.29,NE,53,4.0,12.0,35,0.00,,CLR,0.00,VWS V14.01,2013-04-03 19:08:00,
2013-04-03 14:10:00,48.1,20.4,30.29,ENE,74,4.0,12.0,33,0.00,,CLR,0.00,VWS V14.01,2013-04-03 19:10:00,
2013-04-03 14:14:00,48.1,20.4,30.29,ENE,63,10.0,12.0,33,0.00,,CLR,0.00,VWS V14.01,2013-04-03 19:14:00,
2013-04-03 14:15:00,48.2,19.0,30.29,East,92,4.0,12.0,31,0.00,,CLR,0.00,VWS V14.01,2013-04-03 19:15:00,
2013-04-03 14:17:00,48.2,18.2,30.29,ENE,58,11.0,12.0,30,0.00,,CLR,0.00,VWS V14.01,2013-04-03 19:17:00,
2013-04-03 14:20:00,48.1,18.1,30.29,NE,43,2.0,12.0,30,0.00,,CLR,0.00,VWS V14.01,2013-04-03 19:20:00,
2013-04-03 14:21:00,48.4,20.6,30.29,SE,125,4.0,12.0,33,0.00,,CLR,0.00,VWS V14.01,2013-04-03 19:21:00,
2013-04-03 14:22:00,48.4,20.6,30.29,East,80,3.0,12.0,33,0.00,,CLR,0.00,VWS V14.01,2013-04-03 19:22:00,
2013-04-03 14:25:00,48.1,18.1,30.29,East,89,5.0,12.0,30,0.00,,CLR,0.00,VWS V14.01,2013-04-03 19:25:00,
2013-04-03 14:26:00,48.1,18.1,30.29,ESE,108,10.0,12.0,30,0.00,,CLR,0.00,VWS V14.01,2013-04-03 19:26:00,
2013-04-03 14:27:00,48.1,18.9,30.29,ENE,58,14.0,14.0,31,0.00,,CLR,0.00,VWS V14.01,2013-04-03 19:27:00,
2013-04-03 14:30:00,47.6,19.2,30.30,East,94,7.0,8.0,32,0.00,,CLR,0.00,VWS V14.01,2013-04-03 19:30:00,
2013-04-03 14:31:00,47.6,19.2,30.30,East,92,7.0,8.0,32,0.00,,CLR,0.00,VWS V14.01,2013-04-03 19:31:00,
2013-04-03 14:32:00,47.6,17.7,30.30,ESE,105,1.0,8.0,30,0.00,,CLR,0.00,VWS V14.01,2013-04-03 19:32:00,
2013-04-03 14:35:00,47.6,19.2,30.30,ESE,115,2.0,8.0,32,0.00,,CLR,0.00,VWS V14.01,2013-04-03 19:35:00,
2013-04-03 14:36:00,47.6,19.2,30.30,NE,53,3.0,8.0,32,0.00,,CLR,0.00,VWS V14.01,2013-04-03 19:36:00,
2013-04-03 14:38:00,47.9,18.7,30.30,NE,42,5.0,8.0,31,0.00,,CLR,0.00,VWS V14.01,2013-04-03 19:38:00,
2013-04-03 14:41:00,48.1,18.9,30.30,SE,129,9.0,14.0,31,0.00,,CLR,0.00,VWS V14.01,2013-04-03 19:41:00,
2013-04-03 14:42:00,48.1,19.6,30.30,ENE,64,9.0,14.0,32,0.00,,CLR,0.00,VWS V14.01,2013-04-03 19:42:00,
2013-04-03 14:43:00,48.2,19.7,30.30,ENE,57,6.0,14.0,32,0.00,,CLR,0.00,VWS V14.01,2013-04-03 19:43:00,
2013-04-03 14:47:00,48.2,19.0,30.29,ESE,107,4.0,14.0,31,0.00,,CLR,0.00,VWS V14.01,2013-04-03 19:47:00,
2013-04-03 14:48:00,48.5,20.7,30.29,East,86,5.0,14.0,33,0.00,,CLR,0.00,VWS V14.01,2013-04-03 19:48:00,
2013-04-03 14:49:00,48.5,21.4,30.29,East,81,4.0,14.0,34,0.00,,CLR,0.00,VWS V14.01,2013-04-03 19:49:00,
2013-04-03 14:52:00,49.0,21.9,30.29,SE,124,6.0,14.0,34,0.00,,CLR,0.00,VWS V14.01,2013-04-03 19:52:00,
2013-04-03 14:53:00,49.0,18.9,30.29,SE,136,6.0,16.0,30,0.00,,CLR,0.00,VWS V14.01,2013-04-03 19:53:00,
2013-04-03 14:54:00,48.8,20.3,30.29,ESE,111,7.0,16.0,32,0.00,,CLR,0.00,VWS V14.01,2013-04-03 19:54:00,
2013-04-03 14:57:00,48.7,20.9,30.29,SE,138,5.0,16.0,33,0.00,,CLR,0.00,VWS V14.01,2013-04-03 19:57:00,
2013-04-03 14:58:00,48.5,19.3,30.29,SE,136,8.0,16.0,31,0.00,,CLR,0.00,VWS V14.01,2013-04-03 19:58:00,
2013-04-03 15:00:00,48.5,20.0,30.28,SE,130,3.0,3.0,32,0.00,,CLR,0.00,VWS V14.01,2013-04-03 20:00:00,
2013-04-03 15:02:00,48.5,20.7,30.28,SE,130,3.0,7.0,33,0.00,,CLR,0.00,VWS V14.01,2013-04-03 20:02:00,
2013-04-03 15:03:00,48.8,22.4,30.28,NE,39,9.0,11.0,35,0.00,,CLR,0.00,VWS V14.01,2013-04-03 20:03:00,
2013-04-03 15:04:00,49.1,21.3,30.28,ESE,104,9.0,13.0,33,0.00,,CLR,0.00,VWS V14.01,2013-04-03 20:04:00,
2013-04-03 15:05:00,49.3,20.0,30.28,ENE,65,5.0,13.0,31,0.00,,CLR,0.00,VWS V14.01,2013-04-03 20:05:00,
2013-04-03 15:08:00,49.3,20.0,30.28,East,94,5.0,14.0,31,0.00,,CLR,0.00,VWS V14.01,2013-04-03 20:08:00,
2013-04-03 15:09:00,49.1,19.8,30.28,East,98,8.0,14.0,31,0.00,,CLR,0.00,VWS V14.01,2013-04-03 20:09:00,
2013-04-03 15:12:00,48.8,19.5,30.28,SE,137,4.0,14.0,31,0.00,,CLR,0.00,VWS V14.01,2013-04-03 20:12:00,
2013-04-03 15:13:00,48.8,20.3,30.28,South,173,2.0,14.0,32,0.00,,CLR,0.00,VWS V14.01,2013-04-03 20:13:00,
2013-04-03 15:14:00,48.8,19.5,30.28,SE,134,4.0,14.0,31,0.00,,CLR,0.00,VWS V14.01,2013-04-03 20:14:00,
2013-04-03 15:17:00,49.1,21.3,30.28,NNW,330,6.0,14.0,33,0.00,,CLR,0.00,VWS V14.01,2013-04-03 20:17:00,
2013-04-03 15:18:00,49.3,22.1,30.28,ENE,78,4.0,14.0,34,0.00,,CLR,0.00,VWS V14.01,2013-04-03 20:18:00,
2013-04-03 15:19:00,49.5,20.1,30.28,ENE,63,4.0,14.0,31,0.00,,CLR,0.00,VWS V14.01,2013-04-03 20:19:00,
2013-04-03 15:22:00,49.4,20.0,30.28,ESE,108,5.0,15.0,31,0.00,,CLR,0.00,VWS V14.01,2013-04-03 20:22:00,
2013-04-03 15:24:00,49.7,21.1,30.28,NE,49,4.0,15.0,32,0.00,,CLR,0.00,VWS V14.01,2013-04-03 20:24:00,
2013-04-03 15:25:00,49.7,20.3,30.28,East,85,5.0,15.0,31,0.00,,CLR,0.00,VWS V14.01,2013-04-03 20:25:00,
2013-04-03 15:28:00,49.7,19.5,30.28,NE,48,3.0,15.0,30,0.00,,CLR,0.00,VWS V14.01,2013-04-03 20:28:00,
2013-04-03 15:29:00,49.7,19.5,30.28,NE,38,2.0,15.0,30,0.00,,CLR,0.00,VWS V14.01,2013-04-03 20:29:00,
2013-04-03 15:30:00,49.5,19.4,30.28,ENE,59,10.0,15.0,30,0.00,,CLR,0.00,VWS V14.01,2013-04-03 20:30:00,
2013-04-03 15:33:00,49.5,20.9,30.28,North,360,4.0,9.0,32,0.00,,CLR,0.00,VWS V14.01,2013-04-03 20:33:00,
2013-04-03 15:34:00,49.5,20.9,30.28,ENE,71,7.0,9.0,32,0.00,,CLR,0.00,VWS V14.01,2013-04-03 20:34:00,
2013-04-03 15:35:00,49.4,20.0,30.28,NE,46,7.0,9.0,31,0.00,,CLR,0.00,VWS V14.01,2013-04-03 20:35:00,
2013-04-03 15:39:00,49.5,21.6,30.28,ENE,77,1.0,10.0,33,0.00,,CLR,0.00,VWS V14.01,2013-04-03 20:39:00,
2013-04-03 15:40:00,50.0,22.8,30.28,ESE,103,5.0,10.0,34,0.00,,CLR,0.00,VWS V14.01,2013-04-03 20:40:00,
2013-04-03 15:44:00,49.8,20.4,30.28,NE,52,4.0,11.0,31,0.00,,CLR,0.00,VWS V14.01,2013-04-03 20:44:00,
2013-04-03 15:45:00,49.8,20.4,30.28,NE,40,6.0,11.0,31,0.00,,CLR,0.00,VWS V14.01,2013-04-03 20:45:00,
2013-04-03 15:50:00,49.4,20.8,30.28,ENE,57,7.0,12.0,32,0.00,,CLR,0.00,VWS V14.01,2013-04-03 20:50:00,
2013-04-03 15:51:00,49.3,20.0,30.28,East,98,5.0,12.0,31,0.00,,CLR,0.00,VWS V14.01,2013-04-03 20:51:00,
2013-04-03 15:56:00,49.8,20.4,30.28,East,101,9.0,12.0,31,0.00,,CLR,0.00,VWS V14.01,2013-04-03 20:56:00,
2013-04-03 15:57:00,49.4,18.5,30.28,SSE,159,5.0,14.0,29,0.00,,CLR,0.00,VWS V14.01,2013-04-03 20:57:00,
2013-04-03 16:00:00,49.0,18.9,30.28,East,89,0.0,14.0,30,0.00,,,0.00,VWS V14.01,2013-04-03 21:00:00,
2013-04-03 16:01:00,49.0,18.9,30.28,ESE,104,3.0,3.0,30,0.00,,CLR,0.00,VWS V14.01,2013-04-03 21:01:00,
2013-04-03 16:02:00,49.0,18.9,30.28,East,84,4.0,12.0,30,0.00,,CLR,0.00,VWS V14.01,2013-04-03 21:02:00,
2013-04-03 16:06:00,49.3,19.2,30.28,ESE,117,4.0,12.0,30,0.00,,CLR,0.00,VWS V14.01,2013-04-03 21:06:00,
2013-04-03 16:07:00,49.3,19.2,30.28,ESE,117,3.0,12.0,30,0.00,,CLR,0.00,VWS V14.01,2013-04-03 21:07:00,
2013-04-03 16:12:00,49.3,18.4,30.28,ESE,122,11.0,13.0,29,0.00,,CLR,0.00,VWS V14.01,2013-04-03 21:12:00,
2013-04-03 16:17:00,49.1,17.4,30.27,ENE,74,3.0,13.0,28,0.00,,CLR,0.00,VWS V14.01,2013-04-03 21:17:00,
2013-04-03 16:18:00,49.1,17.4,30.27,SE,125,9.0,13.0,28,0.00,,CLR,0.00,VWS V14.01,2013-04-03 21:18:00,
2013-04-03 16:22:00,49.1,19.0,30.27,East,101,1.0,13.0,30,0.00,,CLR,0.00,VWS V14.01,2013-04-03 21:22:00,
2013-04-03 16:23:00,49.3,18.4,30.27,ESE,116,5.0,13.0,29,0.00,,CLR,0.00,VWS V14.01,2013-04-03 21:23:00,
2013-04-03 16:27:00,49.1,19.8,30.27,SE,130,3.0,13.0,31,0.00,,CLR,0.00,VWS V14.01,2013-04-03 21:27:00,
2013-04-03 16:28:00,49.1,20.5,30.27,East,98,4.0,13.0,32,0.00,,CLR,0.00,VWS V14.01,2013-04-03 21:28:00,
2013-04-03 16:30:00,49.1,19.0,30.27,East,85,5.0,13.0,30,0.00,,,0.00,VWS V14.01,2013-04-03 21:30:00,
2013-04-03 16:32:00,49.3,20.0,30.27,ENE,66,4.0,7.0,31,0.00,,CLR,0.00,VWS V14.01,2013-04-03 21:32:00,
2013-04-03 16:33:00,49.3,19.2,30.27,East,85,2.0,7.0,30,0.00,,CLR,0.00,VWS V14.01,2013-04-03 21:33:00,
2013-04-03 16:37:00,49.5,19.4,30.27,ENE,63,6.0,9.0,30,0.00,,CLR,0.00,VWS V14.01,2013-04-03 21:37:00,
2013-04-03 16:38:00,49.5,19.4,30.27,NE,44,6.0,9.0,30,0.00,,CLR,0.00,VWS V14.01,2013-04-03 21:38:00,
2013-04-03 16:42:00,49.8,20.4,30.27,ENE,69,1.0,13.0,31,0.00,,CLR,0.00,VWS V14.01,2013-04-03 21:42:00,
2013-04-03 16:43:00,49.8,20.4,30.27,ENE,69,0.0,13.0,31,0.00,,CLR,0.00,VWS V14.01,2013-04-03 21:43:00,
2013-04-03 16:47:00,50.0,19.0,30.26,ESE,102,0.0,13.0,29,0.00,,CLR,0.00,VWS V14.01,2013-04-03 21:47:00,
2013-04-03 16:48:00,50.0,19.0,30.26,ESE,102,2.0,13.0,29,0.00,,CLR,0.00,VWS V14.01,2013-04-03 21:48:00,
2013-04-03 16:49:00,50.0,19.8,30.26,ESE,105,8.0,13.0,30,0.00,,CLR,0.00,VWS V14.01,2013-04-03 21:49:00,
2013-04-03 16:52:00,49.8,19.6,30.26,ENE,68,2.0,13.0,30,0.00,,CLR,0.00,VWS V14.01,2013-04-03 21:52:00,
2013-04-03 16:53:00,49.8,19.6,30.26,ENE,68,1.0,13.0,30,0.00,,CLR,0.00,VWS V14.01,2013-04-03 21:53:00,
2013-04-03 16:54:00,49.8,18.8,30.26,NE,38,3.0,13.0,29,0.00,,CLR,0.00,VWS V14.01,2013-04-03 21:54:00,
2013-04-03 16:57:00,49.7,18.8,30.26,ESE,105,8.0,13.0,29,0.00,,CLR,0.00,VWS V14.01,2013-04-03 21:57:00,
2013-04-03 16:58:00,49.7,18.8,30.26,ESE,107,5.0,13.0,29,0.00,,CLR,0.00,VWS V14.01,2013-04-03 21:58:00,
2013-04-03 17:00:00,49.8,19.6,30.26,NE,38,3.0,5.0,30,0.00,,CLR,0.00,VWS V14.01,2013-04-03 22:00:00,
2013-04-03 17:02:00,49.8,19.6,30.26,ENE,65,3.0,7.0,30,0.00,,CLR,0.00,VWS V14.01,2013-04-03 22:02:00,
2013-04-03 17:03:00,49.8,19.6,30.26,East,96,4.0,7.0,30,0.00,,CLR,0.00,VWS V14.01,2013-04-03 22:03:00,
2013-04-03 17:05:00,49.8,18.8,30.26,East,90,5.0,7.0,29,0.00,,CLR,0.00,VWS V14.01,2013-04-03 22:05:00,
2013-04-03 17:08:00,49.5,18.6,30.26,ESE,109,5.0,10.0,29,0.00,,CLR,0.00,VWS V14.01,2013-04-03 22:08:00,
2013-04-03 17:10:00,49.4,19.3,30.26,ENE,75,4.0,10.0,30,0.00,,CLR,0.00,VWS V14.01,2013-04-03 22:10:00,
2013-04-03 17:13:00,49.4,17.7,30.26,NE,44,4.0,10.0,28,0.00,,CLR,0.00,VWS V14.01,2013-04-03 22:13:00,
2013-04-03 17:16:00,49.4,19.3,30.26,ESE,107,7.0,10.0,30,0.00,,CLR,0.00,VWS V14.01,2013-04-03 22:16:00,
2013-04-03 17:18:00,49.4,20.0,30.26,SE,129,3.0,10.0,31,0.00,,CLR,0.00,VWS V14.01,2013-04-03 22:18:00,
2013-04-03 17:19:00,49.4,19.3,30.26,SE,129,3.0,10.0,30,0.00,,CLR,0.00,VWS V14.01,2013-04-03 22:19:00,
2013-04-03 17:21:00,49.4,20.0,30.26,SE,129,1.0,10.0,31,0.00,,CLR,0.00,VWS V14.01,2013-04-03 22:21:00,
2013-04-03 17:23:00,49.5,20.1,30.26,ESE,122,0.0,10.0,31,0.00,,CLR,0.00,VWS V14.01,2013-04-03 22:23:00,
2013-04-03 17:24:00,49.5,20.1,30.26,East,93,3.0,10.0,31,0.00,,CLR,0.00,VWS V14.01,2013-04-03 22:24:00,
2013-04-03 17:26:00,49.5,18.6,30.26,East,101,0.0,10.0,29,0.00,,CLR,0.00,VWS V14.01,2013-04-03 22:26:00,
2013-04-03 17:28:00,49.4,18.5,30.26,East,88,0.0,10.0,29,0.00,,CLR,0.00,VWS V14.01,2013-04-03 22:28:00,
2013-04-03 17:29:00,49.4,18.5,30.26,ENE,78,1.0,10.0,29,0.00,,CLR,0.00,VWS V14.01,2013-04-03 22:29:00,
2013-04-03 17:30:00,49.3,18.4,30.25,East,91,2.0,10.0,29,0.00,,,0.00,VWS V14.01,2013-04-03 22:30:00,
2013-04-03 17:31:00,49.1,18.2,30.25,ESE,103,3.0,3.0,29,0.00,,CLR,0.00,VWS V14.01,2013-04-03 22:31:00,
2013-04-03 17:33:00,49.1,19.0,30.25,ENE,74,4.0,7.0,30,0.00,,CLR,0.00,VWS V14.01,2013-04-03 22:33:00,
2013-04-03 17:34:00,49.3,19.2,30.25,SE,132,0.0,7.0,30,0.00,,CLR,0.00,VWS V14.01,2013-04-03 22:34:00,
2013-04-03 17:37:00,49.4,19.3,30.25,NE,51,0.0,7.0,30,0.00,,CLR,0.00,VWS V14.01,2013-04-03 22:37:00,
2013-04-03 17:39:00,49.4,19.3,30.25,East,89,3.0,7.0,30,0.00,,CLR,0.00,VWS V14.01,2013-04-03 22:39:00,
2013-04-03 17:40:00,49.4,19.3,30.25,East,82,5.0,9.0,30,0.00,,CLR,0.00,VWS V14.01,2013-04-03 22:40:00,
2013-04-03 17:42:00,49.3,20.0,30.25,East,85,6.0,10.0,31,0.00,,CLR,0.00,VWS V14.01,2013-04-03 22:42:00,
2013-04-03 17:44:00,49.3,20.0,30.25,East,98,3.0,10.0,31,0.00,,CLR,0.00,VWS V14.01,2013-04-03 22:44:00,
2013-04-03 17:45:00,49.1,19.8,30.25,East,89,4.0,10.0,31,0.00,,CLR,0.00,VWS V14.01,2013-04-03 22:45:00,
2013-04-03 17:47:00,49.1,20.5,30.25,ESE,117,0.0,10.0,32,0.00,,CLR,0.00,VWS V14.01,2013-04-03 22:47:00,
2013-04-03 17:49:00,49.1,19.0,30.25,South,180,3.0,10.0,30,0.00,,CLR,0.00,VWS V14.01,2013-04-03 22:49:00,
2013-04-03 17:50:00,49.0,18.9,30.25,ESE,120,3.0,10.0,30,0.00,,CLR,0.00,VWS V14.01,2013-04-03 22:50:00,
2013-04-03 17:52:00,49.0,19.7,30.25,NE,46,0.0,10.0,31,0.00,,CLR,0.00,VWS V14.01,2013-04-03 22:52:00,
2013-04-03 17:54:00,49.0,19.7,30.25,NE,45,0.0,10.0,31,0.00,,CLR,0.00,VWS V14.01,2013-04-03 22:54:00,
2013-04-03 17:55:00,49.0,19.7,30.25,East,96,1.0,10.0,31,0.00,,CLR,0.00,VWS V14.01,2013-04-03 22:55:00,
2013-04-03 17:57:00,49.0,19.7,30.25,ESE,115,6.0,10.0,31,0.00,,CLR,0.00,VWS V14.01,2013-04-03 22:57:00,
2013-04-03 17:59:00,49.0,20.4,30.25,ENE,76,0.0,10.0,32,0.00,,CLR,0.00,VWS V14.01,2013-04-03 22:59:00,
2013-04-03 18:00:00,49.0,20.4,30.25,ENE,77,0.0,10.0,32,0.00,,CLR,0.00,VWS V14.01,2013-04-03 23:00:00,
2013-04-03 18:03:00,49.0,19.7,30.25,East,101,3.0,9.0,31,0.00,,CLR,0.00,VWS V14.01,2013-04-03 23:03:00,
2013-04-03 18:05:00,49.0,19.7,30.25,ENE,61,0.0,9.0,31,0.00,,CLR,0.00,VWS V14.01,2013-04-03 23:05:00,
2013-04-03 18:08:00,49.0,20.4,30.25,East,82,0.0,9.0,32,0.00,,CLR,0.00,VWS V14.01,2013-04-03 23:08:00,
2013-04-03 18:10:00,48.8,21.0,30.25,East,92,0.0,9.0,33,0.00,,CLR,0.00,VWS V14.01,2013-04-03 23:10:00,
2013-04-03 18:13:00,48.8,19.5,30.25,East,98,0.0,9.0,31,0.00,,CLR,0.00,VWS V14.01,2013-04-03 23:13:00,
2013-04-03 18:15:00,48.7,20.9,30.25,East,86,0.0,9.0,33,0.00,,CLR,0.00,VWS V14.01,2013-04-03 23:15:00,
2013-04-03 18:18:00,48.7,20.2,30.25,East,81,0.0,9.0,32,0.00,,CLR,0.00,VWS V14.01,2013-04-03 23:18:00,
2013-04-03 18:20:00,48.5,20.7,30.25,SE,129,0.0,9.0,33,0.00,,CLR,0.00,VWS V14.01,2013-04-03 23:20:00,
2013-04-03 18:21:00,48.5,20.7,30.25,ESE,110,3.0,9.0,33,0.00,,CLR,0.00,VWS V14.01,2013-04-03 23:21:00,
2013-04-03 18:23:00,48.4,20.6,30.25,SE,132,4.0,9.0,33,0.00,,CLR,0.00,VWS V14.01,2013-04-03 23:23:00,
2013-04-03 18:26:00,48.4,20.6,30.25,ESE,119,1.0,9.0,33,0.00,,CLR,0.00,VWS V14.01,2013-04-03 23:26:00,
2013-04-03 18:27:00,48.2,20.5,30.25,East,99,0.0,9.0,33,0.00,,CLR,0.00,VWS V14.01,2013-04-03 23:27:00,
2013-04-03 18:28:00,48.2,20.5,30.25,ESE,123,2.0,9.0,33,0.00,,CLR,0.00,VWS V14.01,2013-04-03 23:28:00,
2013-04-03 18:30:00,48.2,21.2,30.25,ESE,123,0.0,9.0,34,0.00,,,0.00,VWS V14.01,2013-04-03 23:30:00,
2013-04-03 18:31:00,48.2,21.2,30.25,ESE,123,0.0,0.0,34,0.00,,CLR,0.00,VWS V14.01,2013-04-03 23:31:00,
2013-04-03 18:32:00,48.2,21.2,30.25,ESE,123,0.0,0.0,34,0.00,,CLR,0.00,VWS V14.01,2013-04-03 23:32:00,
2013-04-03 18:33:00,48.1,20.4,30.25,SE,144,0.0,4.0,33,0.00,,CLR,0.00,VWS V14.01,2013-04-03 23:33:00,
2013-04-03 18:36:00,48.1,20.4,30.25,ESE,119,2.0,4.0,33,0.00,,CLR,0.00,VWS V14.01,2013-04-03 23:36:00,
2013-04-03 18:37:00,47.9,20.2,30.25,ESE,112,0.0,4.0,33,0.00,,CLR,0.00,VWS V14.01,2013-04-03 23:37:00,
2013-04-03 18:38:00,47.9,20.9,30.25,SE,130,0.0,4.0,34,0.00,,CLR,0.00,VWS V14.01,2013-04-03 23:38:00,
2013-04-03 18:42:00,47.8,20.1,30.25,ESE,115,0.0,4.0,33,0.00,,CLR,0.00,VWS V14.01,2013-04-03 23:42:00,
2013-04-03 18:44:00,47.8,20.1,30.25,East,101,0.0,4.0,33,0.00,,CLR,0.00,VWS V14.01,2013-04-03 23:44:00,
2013-04-03 18:47:00,47.6,20.6,30.25,ESE,110,0.0,4.0,34,0.00,,CLR,0.00,VWS V14.01,2013-04-03 23:47:00,
2013-04-03 18:48:00,47.6,21.3,30.25,ESE,121,0.0,4.0,35,0.00,,CLR,0.00,VWS V14.01,2013-04-03 23:48:00,
2013-04-03 18:49:00,47.6,20.6,30.25,East,82,0.0,4.0,34,0.00,,CLR,0.00,VWS V14.01,2013-04-03 23:49:00,
2013-04-03 18:52:00,47.5,21.2,30.25,East,81,0.0,4.0,35,0.00,,CLR,0.00,VWS V14.01,2013-04-03 23:52:00,
2013-04-03 18:54:00,47.5,21.2,30.25,ESE,106,0.0,4.0,35,0.00,,CLR,0.00,VWS V14.01,2013-04-03 23:54:00,
2013-04-03 18:55:00,47.5,21.2,30.25,ESE,107,0.0,4.0,35,0.00,,CLR,0.00,VWS V14.01,2013-04-03 23:55:00,
2013-04-03 18:57:00,47.5,21.2,30.25,ESE,107,0.0,4.0,35,0.00,,CLR,0.00,VWS V14.01,2013-04-03 23:57:00,
2013-04-03 18:58:00,47.5,21.2,30.25,ESE,107,0.0,4.0,35,0.00,,CLR,0.00,VWS V14.01,2013-04-03 23:58:00,
2013-04-03 18:59:00,47.3,21.0,30.25,SE,129,0.0,4.0,35,0.00,,CLR,0.00,VWS V14.01,2013-04-03 23:59:00,
2013-04-03 19:00:00,47.3,21.0,30.25,ESE,121,0.0,0.0,35,0.00,,CLR,0.00,VWS V14.01,2013-04-04 00:00:00,
2013-04-03 19:02:00,47.2,21.0,30.25,SE,130,0.0,1.0,35,0.00,,CLR,0.00,VWS V14.01,2013-04-04 00:02:00,
2013-04-03 19:03:00,47.2,21.0,30.25,SE,130,0.0,1.0,35,0.00,,CLR,0.00,VWS V14.01,2013-04-04 00:03:00,
2013-04-03 19:04:00,47.2,21.0,30.25,SE,127,0.0,1.0,35,0.00,,CLR,0.00,VWS V14.01,2013-04-04 00:04:00,
2013-04-03 19:05:00,47.2,21.0,30.25,SE,126,0.0,1.0,35,0.00,,CLR,0.00,VWS V14.01,2013-04-04 00:05:00,
2013-04-03 19:08:00,47.0,20.8,30.25,SE,124,0.0,1.0,35,0.00,,CLR,0.00,VWS V14.01,2013-04-04 00:08:00,
2013-04-03 19:10:00,47.0,20.8,30.25,SE,125,0.0,1.0,35,0.00,,CLR,0.00,VWS V14.01,2013-04-04 00:10:00,
2013-04-03 19:13:00,47.0,21.5,30.25,ESE,113,0.0,1.0,36,0.00,,CLR,0.00,VWS V14.01,2013-04-04 00:13:00,
2013-04-03 19:15:00,46.9,22.0,30.25,East,92,0.0,1.0,37,0.00,,CLR,0.00,VWS V14.01,2013-04-04 00:15:00,
2013-04-03 19:18:00,46.7,21.8,30.25,ESE,110,0.0,1.0,37,0.00,,CLR,0.00,VWS V14.01,2013-04-04 00:18:00,
2013-04-03 19:19:00,46.7,22.5,30.25,ESE,111,0.0,1.0,38,0.00,,CLR,0.00,VWS V14.01,2013-04-04 00:19:00,
2013-04-03 19:20:00,46.7,21.8,30.25,ESE,113,0.0,1.0,37,0.00,,CLR,0.00,VWS V14.01,2013-04-04 00:20:00,
2013-04-03 19:23:00,46.6,22.4,30.25,East,86,0.0,1.0,38,0.00,,CLR,0.00,VWS V14.01,2013-04-04 00:23:00,
2013-04-03 19:24:00,46.6,22.4,30.25,ENE,76,0.0,1.0,38,0.00,,CLR,0.00,VWS V14.01,2013-04-04 00:24:00,
2013-04-03 19:25:00,46.6,22.4,30.25,ENE,76,0.0,1.0,38,0.00,,CLR,0.00,VWS V14.01,2013-04-04 00:25:00,
2013-04-03 19:28:00,46.6,23.0,30.25,ENE,76,0.0,1.0,39,0.00,,CLR,0.00,VWS V14.01,2013-04-04 00:28:00,
2013-04-03 19:29:00,46.4,22.8,30.25,ENE,76,0.0,1.0,39,0.00,,CLR,0.00,VWS V14.01,2013-04-04 00:29:00,
2013-04-03 19:30:00,46.4,22.8,30.25,ENE,76,0.0,0.0,39,0.00,,CLR,0.00,VWS V14.01,2013-04-04 00:30:00,
2013-04-03 19:33:00,46.4,22.8,30.25,ENE,76,0.0,0.0,39,0.00,,CLR,0.00,VWS V14.01,2013-04-04 00:33:00,
2013-04-03 19:34:00,46.3,22.7,30.25,ENE,76,0.0,0.0,39,0.00,,CLR,0.00,VWS V14.01,2013-04-04 00:34:00,
2013-04-03 19:35:00,46.3,22.7,30.25,ENE,76,0.0,0.0,39,0.00,,CLR,0.00,VWS V14.01,2013-04-04 00:35:00,
2013-04-03 19:36:00,46.3,22.7,30.25,ENE,76,0.0,0.0,39,0.00,,CLR,0.00,VWS V14.01,2013-04-04 00:36:00,
2013-04-03 19:39:00,46.3,22.7,30.25,ENE,76,0.0,0.0,39,0.00,,CLR,0.00,VWS V14.01,2013-04-04 00:39:00,
2013-04-03 19:40:00,46.3,22.7,30.25,ENE,76,0.0,0.0,39,0.00,,CLR,0.00,VWS V14.01,2013-04-04 00:40:00,
2013-04-03 19:41:00,46.1,22.5,30.25,ENE,76,0.0,0.0,39,0.00,,CLR,0.00,VWS V14.01,2013-04-04 00:41:00,
2013-04-03 19:44:00,46.1,23.1,30.25,ENE,76,0.0,0.0,40,0.00,,CLR,0.00,VWS V14.01,2013-04-04 00:44:00,
2013-04-03 19:45:00,46.1,23.1,30.25,ENE,76,0.0,0.0,40,0.00,,CLR,0.00,VWS V14.01,2013-04-04 00:45:00,
2013-04-03 19:46:00,46.0,23.6,30.25,ENE,76,0.0,0.0,41,0.00,,CLR,0.00,VWS V14.01,2013-04-04 00:46:00,
2013-04-03 19:49:00,46.0,23.6,30.25,ENE,76,0.0,0.0,41,0.00,,CLR,0.00,VWS V14.01,2013-04-04 00:49:00,
2013-04-03 19:50:00,45.9,23.5,30.25,ENE,76,0.0,0.0,41,0.00,,CLR,0.00,VWS V14.01,2013-04-04 00:50:00,
2013-04-03 19:52:00,45.9,23.5,30.25,ENE,76,0.0,0.0,41,0.00,,CLR,0.00,VWS V14.01,2013-04-04 00:52:00,
2013-04-03 19:54:00,45.9,24.1,30.25,ENE,76,0.0,0.0,42,0.00,,CLR,0.00,VWS V14.01,2013-04-04 00:54:00,
2013-04-03 19:55:00,45.7,23.9,30.25,ENE,76,0.0,0.0,42,0.00,,CLR,0.00,VWS V14.01,2013-04-04 00:55:00,
2013-04-03 19:57:00,45.7,23.9,30.25,ENE,76,0.0,0.0,42,0.00,,CLR,0.00,VWS V14.01,2013-04-04 00:57:00,
2013-04-03 20:00:00,45.6,24.4,30.24,ENE,76,0.0,0.0,43,0.00,,CLR,0.00,VWS V14.01,2013-04-04 01:00:00,
2013-04-03 20:01:00,45.6,24.4,30.24,ENE,76,0.0,0.0,43,0.00,,CLR,0.00,VWS V14.01,2013-04-04 01:01:00,
2013-04-03 20:02:00,45.6,24.4,30.24,ENE,76,0.0,0.0,43,0.00,,CLR,0.00,VWS V14.01,2013-04-04 01:02:00,
2013-04-03 20:05:00,45.4,24.2,30.24,ENE,76,0.0,0.0,43,0.00,,CLR,0.00,VWS V14.01,2013-04-04 01:05:00,
2013-04-03 20:06:00,45.4,24.2,30.24,ENE,76,0.0,0.0,43,0.00,,CLR,0.00,VWS V14.01,2013-04-04 01:06:00,
2013-04-03 20:07:00,45.4,23.7,30.24,ENE,76,0.0,0.0,42,0.00,,CLR,0.00,VWS V14.01,2013-04-04 01:07:00,
2013-04-03 20:10:00,45.3,24.1,30.24,ENE,76,0.0,0.0,43,0.00,,CLR,0.00,VWS V14.01,2013-04-04 01:10:00,
2013-04-03 20:11:00,45.3,24.1,30.24,ENE,76,0.0,0.0,43,0.00,,CLR,0.00,VWS V14.01,2013-04-04 01:11:00,
2013-04-03 20:12:00,45.1,24.0,30.24,ENE,76,0.0,0.0,43,0.00,,CLR,0.00,VWS V14.01,2013-04-04 01:12:00,
2013-04-03 20:16:00,45.1,24.0,30.25,ENE,76,0.0,0.0,43,0.00,,CLR,0.00,VWS V14.01,2013-04-04 01:16:00,
2013-04-03 20:17:00,45.1,24.0,30.25,ENE,76,0.0,0.0,43,0.00,,CLR,0.00,VWS V14.01,2013-04-04 01:17:00,
2013-04-03 20:18:00,45.0,23.9,30.25,ENE,76,0.0,0.0,43,0.00,,CLR,0.00,VWS V14.01,2013-04-04 01:18:00,
2013-04-03 20:21:00,45.0,23.9,30.25,ENE,76,0.0,0.0,43,0.00,,CLR,0.00,VWS V14.01,2013-04-04 01:21:00,
2013-04-03 20:22:00,45.0,24.4,30.25,ENE,76,0.0,0.0,44,0.00,,CLR,0.00,VWS V14.01,2013-04-04 01:22:00,
2013-04-03 20:23:00,45.0,24.4,30.25,ENE,76,0.0,0.0,44,0.00,,CLR,0.00,VWS V14.01,2013-04-04 01:23:00,
2013-04-03 20:26:00,44.8,23.7,30.25,ENE,76,0.0,0.0,43,0.00,,CLR,0.00,VWS V14.01,2013-04-04 01:26:00,
2013-04-03 20:27:00,44.8,23.7,30.25,ENE,76,0.0,0.0,43,0.00,,CLR,0.00,VWS V14.01,2013-04-04 01:27:00,
2013-04-03 20:28:00,44.8,24.2,30.25,ENE,76,0.0,0.0,44,0.00,,CLR,0.00,VWS V14.01,2013-04-04 01:28:00,
2013-04-03 20:30:00,44.7,23.6,30.25,ENE,76,0.0,0.0,43,0.00,,,0.00,VWS V14.01,2013-04-04 01:30:00,
2013-04-03 20:31:00,44.7,24.1,30.25,ENE,76,0.0,0.0,44,0.00,,CLR,0.00,VWS V14.01,2013-04-04 01:31:00,
2013-04-03 20:32:00,44.7,24.1,30.25,ENE,76,0.0,0.0,44,0.00,,CLR,0.00,VWS V14.01,2013-04-04 01:32:00,
2013-04-03 20:33:00,44.7,24.1,30.25,ENE,76,0.0,0.0,44,0.00,,CLR,0.00,VWS V14.01,2013-04-04 01:33:00,
2013-04-03 20:37:00,44.5,24.0,30.25,ENE,76,0.0,0.0,44,0.00,,CLR,0.00,VWS V14.01,2013-04-04 01:37:00,
2013-04-03 20:38:00,44.4,23.9,30.25,ENE,76,0.0,0.0,44,0.00,,CLR,0.00,VWS V14.01,2013-04-04 01:38:00,
2013-04-03 20:42:00,44.2,24.2,30.25,ENE,76,0.0,0.0,45,0.00,,CLR,0.00,VWS V14.01,2013-04-04 01:42:00,
2013-04-03 20:43:00,44.2,24.8,30.25,ENE,76,0.0,0.0,46,0.00,,CLR,0.00,VWS V14.01,2013-04-04 01:43:00,
2013-04-03 20:47:00,44.0,24.6,30.25,ENE,76,0.0,0.0,46,0.00,,CLR,0.00,VWS V14.01,2013-04-04 01:47:00,
2013-04-03 20:48:00,44.0,25.1,30.25,ENE,76,0.0,0.0,47,0.00,,CLR,0.00,VWS V14.01,2013-04-04 01:48:00,
2013-04-03 20:52:00,43.8,24.9,30.25,ENE,76,0.0,0.0,47,0.00,,CLR,0.00,VWS V14.01,2013-04-04 01:52:00,
2013-04-03 20:53:00,43.7,24.8,30.25,ENE,76,0.0,0.0,47,0.00,,CLR,0.00,VWS V14.01,2013-04-04 01:53:00,
2013-04-03 20:57:00,43.5,25.1,30.25,ENE,76,0.0,0.0,48,0.00,,CLR,0.00,VWS V14.01,2013-04-04 01:57:00,
2013-04-03 20:58:00,43.5,25.1,30.25,ENE,76,0.0,0.0,48,0.00,,CLR,0.00,VWS V14.01,2013-04-04 01:58:00,
2013-04-03 20:59:00,43.5,25.1,30.25,ENE,76,0.0,0.0,48,0.00,,CLR,0.00,VWS V14.01,2013-04-04 01:59:00,
2013-04-03 21:00:00,43.4,25.0,30.25,ENE,76,0.0,0.0,48,0.00,,,0.00,VWS V14.01,2013-04-04 02:00:00,
2013-04-03 21:02:00,43.4,25.5,30.25,ENE,76,0.0,0.0,49,0.00,,CLR,0.00,VWS V14.01,2013-04-04 02:02:00,
2013-04-03 21:03:00,43.4,25.5,30.25,ENE,76,0.0,0.0,49,0.00,,CLR,0.00,VWS V14.01,2013-04-04 02:03:00,
2013-04-03 21:04:00,43.4,25.5,30.25,ENE,76,0.0,0.0,49,0.00,,CLR,0.00,VWS V14.01,2013-04-04 02:04:00,
2013-04-03 21:08:00,43.2,25.4,30.25,ENE,76,0.0,0.0,49,0.00,,CLR,0.00,VWS V14.01,2013-04-04 02:08:00,
2013-04-03 21:09:00,43.1,25.3,30.25,ENE,76,0.0,0.0,49,0.00,,CLR,0.00,VWS V14.01,2013-04-04 02:09:00,
2013-04-03 21:13:00,43.1,25.3,30.25,ENE,76,0.0,0.0,49,0.00,,CLR,0.00,VWS V14.01,2013-04-04 02:13:00,
2013-04-03 21:14:00,43.0,25.6,30.25,ENE,76,0.0,0.0,50,0.00,,CLR,0.00,VWS V14.01,2013-04-04 02:14:00,
2013-04-03 21:18:00,42.8,25.9,30.25,ENE,76,0.0,0.0,51,0.00,,CLR,0.00,VWS V14.01,2013-04-04 02:18:00,
2013-04-03 21:19:00,42.8,25.9,30.25,ENE,76,0.0,0.0,51,0.00,,CLR,0.00,VWS V14.01,2013-04-04 02:19:00,
2013-04-03 21:20:00,42.8,25.9,30.25,ENE,76,0.0,0.0,51,0.00,,CLR,0.00,VWS V14.01,2013-04-04 02:20:00,
2013-04-03 21:23:00,42.7,26.8,30.25,ENE,76,0.0,0.0,53,0.00,,CLR,0.00,VWS V14.01,2013-04-04 02:23:00,
2013-04-03 21:25:00,42.7,27.2,30.25,ENE,76,0.0,0.0,54,0.00,,CLR,0.00,VWS V14.01,2013-04-04 02:25:00,
2013-04-03 21:28:00,42.5,26.1,30.25,ENE,76,0.0,0.0,52,0.00,,CLR,0.00,VWS V14.01,2013-04-04 02:28:00,
2013-04-03 21:30:00,42.4,25.6,30.25,ENE,76,0.0,0.0,51,0.00,,CLR,0.00,VWS V14.01,2013-04-04 02:30:00,
2013-04-03 21:33:00,42.4,25.6,30.25,ENE,76,0.0,0.0,51,0.00,,CLR,0.00,VWS V14.01,2013-04-04 02:33:00,
2013-04-03 21:35:00,42.2,24.9,30.25,ENE,76,0.0,0.0,50,0.00,,CLR,0.00,VWS V14.01,2013-04-04 02:35:00,
2013-04-03 21:38:00,42.2,24.4,30.25,ENE,76,0.0,0.0,49,0.00,,CLR,0.00,VWS V14.01,2013-04-04 02:38:00,
2013-04-03 21:39:00,42.2,24.4,30.25,ENE,76,0.0,0.0,49,0.00,,CLR,0.00,VWS V14.01,2013-04-04 02:39:00,
2013-04-03 21:40:00,42.2,24.4,30.25,ENE,76,0.0,0.0,49,0.00,,CLR,0.00,VWS V14.01,2013-04-04 02:40:00,
2013-04-03 21:43:00,42.2,23.9,30.25,ENE,76,0.0,0.0,48,0.00,,CLR,0.00,VWS V14.01,2013-04-04 02:43:00,
2013-04-03 21:44:00,42.2,23.9,30.25,ENE,76,0.0,0.0,48,0.00,,CLR,0.00,VWS V14.01,2013-04-04 02:44:00,
2013-04-03 21:45:00,42.2,23.9,30.25,ENE,76,0.0,0.0,48,0.00,,CLR,0.00,VWS V14.01,2013-04-04 02:45:00,
2013-04-03 21:49:00,42.4,25.1,30.25,ENE,76,0.0,0.0,50,0.00,,CLR,0.00,VWS V14.01,2013-04-04 02:49:00,
2013-04-03 21:50:00,42.2,25.4,30.25,ENE,76,0.0,0.0,51,0.00,,CLR,0.00,VWS V14.01,2013-04-04 02:50:00,
2013-04-03 21:54:00,42.2,26.3,30.25,ENE,76,0.0,0.0,53,0.00,,CLR,0.00,VWS V14.01,2013-04-04 02:54:00,
2013-04-03 21:55:00,42.2,26.3,30.25,ENE,76,0.0,0.0,53,0.00,,CLR,0.00,VWS V14.01,2013-04-04 02:55:00,
2013-04-03 21:59:00,42.1,25.8,30.25,ENE,76,0.0,0.0,52,0.00,,CLR,0.00,VWS V14.01,2013-04-04 02:59:00,
2013-04-03 22:00:00,42.1,25.3,30.25,ENE,76,0.0,0.0,51,0.00,,CLR,0.00,VWS V14.01,2013-04-04 03:00:00,
2013-04-03 22:04:00,42.1,25.3,30.25,ENE,76,0.0,0.0,51,0.00,,CLR,0.00,VWS V14.01,2013-04-04 03:04:00,
2013-04-03 22:05:00,42.1,25.3,30.25,ENE,76,0.0,0.0,51,0.00,,CLR,0.00,VWS V14.01,2013-04-04 03:05:00,
2013-04-03 22:06:00,42.0,25.2,30.25,ENE,76,0.0,0.0,51,0.00,,CLR,0.00,VWS V14.01,2013-04-04 03:06:00,
2013-04-03 22:10:00,42.0,25.2,30.25,ENE,76,0.0,0.0,51,0.00,,CLR,0.00,VWS V14.01,2013-04-04 03:10:00,
2013-04-03 22:11:00,42.0,24.7,30.25,ENE,76,0.0,0.0,50,0.00,,CLR,0.00,VWS V14.01,2013-04-04 03:11:00,
2013-04-03 22:15:00,42.0,24.7,30.24,ENE,76,0.0,0.0,50,0.00,,CLR,0.00,VWS V14.01,2013-04-04 03:15:00,
2013-04-03 22:16:00,42.0,24.7,30.24,ENE,76,0.0,0.0,50,0.00,,CLR,0.00,VWS V14.01,2013-04-04 03:16:00,
2013-04-03 22:20:00,42.0,24.2,30.24,ENE,76,0.0,0.0,49,0.00,,CLR,0.00,VWS V14.01,2013-04-04 03:20:00,
2013-04-03 22:21:00,42.0,24.2,30.24,ENE,76,0.0,0.0,49,0.00,,CLR,0.00,VWS V14.01,2013-04-04 03:21:00,
2013-04-03 22:22:00,42.0,24.2,30.24,ENE,76,0.0,0.0,49,0.00,,CLR,0.00,VWS V14.01,2013-04-04 03:22:00,
2013-04-03 22:25:00,42.0,23.8,30.24,ENE,76,0.0,0.0,48,0.00,,CLR,0.00,VWS V14.01,2013-04-04 03:25:00,
2013-04-03 22:26:00,42.0,23.8,30.24,ENE,76,0.0,0.0,48,0.00,,CLR,0.00,VWS V14.01,2013-04-04 03:26:00,
2013-04-03 22:27:00,42.0,23.8,30.24,ENE,76,0.0,0.0,48,0.00,,CLR,0.00,VWS V14.01,2013-04-04 03:27:00,
2013-04-03 22:30:00,42.1,23.8,30.24,ENE,76,0.0,0.0,48,0.00,,,0.00,VWS V14.01,2013-04-04 03:30:00,
2013-04-03 22:31:00,42.1,23.8,30.24,ENE,76,0.0,0.0,48,0.00,,CLR,0.00,VWS V14.01,2013-04-04 03:31:00,
2013-04-03 22:32:00,42.1,23.8,30.24,ENE,76,0.0,0.0,48,0.00,,CLR,0.00,VWS V14.01,2013-04-04 03:32:00,
2013-04-03 22:36:00,42.2,24.4,30.24,ENE,76,0.0,0.0,49,0.00,,CLR,0.00,VWS V14.01,2013-04-04 03:36:00,
2013-04-03 22:37:00,42.2,24.4,30.24,ENE,76,0.0,0.0,49,0.00,,CLR,0.00,VWS V14.01,2013-04-04 03:37:00,
2013-04-03 22:42:00,42.2,23.9,30.24,ENE,76,0.0,0.0,48,0.00,,CLR,0.00,VWS V14.01,2013-04-04 03:42:00,
2013-04-03 22:43:00,42.2,23.9,30.24,ENE,76,0.0,0.0,48,0.00,,CLR,0.00,VWS V14.01,2013-04-04 03:43:00,
2013-04-03 22:47:00,42.1,23.3,30.23,ENE,76,0.0,0.0,47,0.00,,CLR,0.00,VWS V14.01,2013-04-04 03:47:00,
2013-04-03 22:48:00,42.1,23.3,30.23,ENE,76,0.0,0.0,47,0.00,,CLR,0.00,VWS V14.01,2013-04-04 03:48:00,
2013-04-03 22:49:00,42.1,23.3,30.23,ENE,76,0.0,0.0,47,0.00,,CLR,0.00,VWS V14.01,2013-04-04 03:49:00,
2013-04-03 23:00:00,42.1,22.8,30.23,North,0,0.0,0.0,46,0.00,,,0.00,VWS V14.01,2013-04-04 04:00:00,
2013-04-03 23:30:00,41.6,22.4,30.23,North,0,0.0,0.0,46,0.00,,,0.00,VWS V14.01,2013-04-04 04:30:00,